JAL5 KJFK-RJTT

Flight info

Callsign JAL5
Flight time N/A
Altitude 29000
Route GREKI DCT JUDDS DCT CAM/N0481F280 DCT BUGSY DCT YMO/N0490F300 DCT 58N090W 62N100W/N0490F320 65N110W 66N120W 67N130W DCT GOATS NCA28 FYU DCT 66N150W 65N160W/N0494F340 DCT OME R338 NATES/N0487F350 R220 NRKEY/N0490F360 R220 NUBDA/N0497F370 R220 NANAC/N0494F360 Y810 AKRIT Y807 POLIX
Aircraft B77W/H-SDE1E2E3FGHIJ2J3J4J5M1RWXY/LB1D1

Departure

Time 2026-05-04 10:57
Airport John F. Kennedy International Airport (KJFK)

Arrival

Time N/A
Airport Tokyo Haneda International Airport (RJTT)
Time Latitude Longitude Altitude Speed Heading
2026-05-04 10:08 40.64876 -73.79182 22 ft 0 kts 173°
2026-05-04 10:42 40.64880 -73.79182 25 ft 2 kts 172°
2026-05-04 10:42 40.64896 -73.79187 25 ft 2 kts 158°
2026-05-04 10:42 40.64910 -73.79198 27 ft 2 kts 124°
2026-05-04 10:42 40.64915 -73.79218 25 ft 2 kts 74°
2026-05-04 10:43 40.64912 -73.79227 28 ft 0 kts 63°
2026-05-04 10:46 40.64915 -73.79220 25 ft 4 kts 63°
2026-05-04 10:47 40.64939 -73.79160 25 ft 10 kts 62°
2026-05-04 10:47 40.64976 -73.79072 26 ft 11 kts 60°
2026-05-04 10:47 40.65014 -73.78985 23 ft 11 kts 60°
2026-05-04 10:47 40.65042 -73.78926 25 ft 6 kts 43°
2026-05-04 10:49 40.65268 -73.78685 28 ft 12 kts 61°
2026-05-04 10:49 40.65314 -73.78575 28 ft 15 kts 61°
2026-05-04 10:50 40.65366 -73.78453 29 ft 15 kts 60°
2026-05-04 10:51 40.65334 -73.77765 29 ft 21 kts 120°
2026-05-04 10:52 40.65259 -73.77600 29 ft 21 kts 121°
2026-05-04 10:52 40.65185 -73.77438 28 ft 21 kts 121°
2026-05-04 10:52 40.65111 -73.77273 29 ft 21 kts 120°
2026-05-04 10:54 40.64911 -73.76672 29 ft 5 kts 32°
2026-05-04 10:54 40.64952 -73.76639 29 ft 9 kts 31°
2026-05-04 10:56 40.65012 -73.76365 27 ft 6 kts 206°
2026-05-04 10:56 40.65010 -73.76367 27 ft 0 kts 208°
2026-05-04 10:56 40.65009 -73.76368 27 ft 3 kts 209°
2026-05-04 10:57 40.64812 -73.76520 30 ft 70 kts 211°
2026-05-04 10:57 40.64177 -73.77017 28 ft 140 kts 211°
2026-05-04 10:57 40.63162 -73.77824 59 ft 193 kts 214°
2026-05-04 10:57 40.61995 -73.78757 738 ft 194 kts 212°
2026-05-04 10:58 40.60868 -73.79728 1537 ft 192 kts 227°
2026-05-04 10:58 40.60193 -73.81219 1941 ft 195 kts 259°
2026-05-04 10:58 40.60312 -73.83017 2127 ft 207 kts 291°
2026-05-04 10:58 40.60991 -73.84724 2436 ft 216 kts 296°
2026-05-04 10:59 40.61769 -73.86474 2820 ft 226 kts 297°
2026-05-04 10:59 40.62583 -73.88282 3242 ft 235 kts 297°
2026-05-04 10:59 40.63440 -73.90196 3581 ft 247 kts 297°
2026-05-04 10:59 40.64340 -73.92132 4059 ft 254 kts 305°
2026-05-04 11:00 40.65797 -73.93555 4447 ft 271 kts 339°
2026-05-04 11:01 40.78759 -73.85756 8327 ft 310 kts 27°
2026-05-04 11:02 40.80628 -73.84309 8890 ft 313 kts 27°
2026-05-04 11:02 40.82512 -73.82848 9464 ft 315 kts 27°
2026-05-04 11:05 41.13556 -73.58607 15904 ft 413 kts 26°
2026-05-04 11:06 41.16040 -73.56658 16465 ft 416 kts 26°
2026-05-04 11:06 41.18547 -73.54688 17027 ft 419 kts 26°
2026-05-04 11:06 41.21072 -73.52703 17618 ft 422 kts 26°
2026-05-04 11:06 41.23611 -73.50704 18176 ft 425 kts 26°
2026-05-04 11:08 41.41796 -73.36340 21536 ft 444 kts 25°
2026-05-04 11:10 41.58749 -73.17132 24349 ft 471 kts 40°
2026-05-04 11:12 41.79386 -73.13457 26323 ft 447 kts 347°
2026-05-04 11:12 41.82434 -73.14014 26650 ft 449 kts 347°
2026-05-04 11:12 41.85544 -73.14568 26930 ft 452 kts 347°
2026-05-04 11:12 41.88676 -73.15116 27203 ft 455 kts 347°
2026-05-04 11:13 41.91823 -73.15660 27488 ft 457 kts 347°
2026-05-04 11:13 41.94981 -73.16202 27769 ft 459 kts 347°
2026-05-04 11:13 41.98166 -73.16749 27902 ft 463 kts 347°
2026-05-04 11:13 42.01372 -73.17299 27951 ft 466 kts 347°
2026-05-04 11:14 42.04614 -73.17856 27949 ft 471 kts 347°
2026-05-04 11:14 42.07871 -73.18416 27960 ft 474 kts 347°
2026-05-04 11:14 42.11166 -73.18984 27939 ft 478 kts 348°
2026-05-04 11:16 42.34254 -73.23014 27926 ft 477 kts 347°
2026-05-04 11:16 42.37547 -73.23583 27925 ft 478 kts 347°
2026-05-04 11:16 42.40843 -73.24153 27933 ft 478 kts 347°
2026-05-04 11:17 42.44144 -73.24727 27925 ft 477 kts 347°
2026-05-04 11:17 42.47432 -73.25299 27923 ft 476 kts 347°
2026-05-04 11:19 42.70389 -73.29314 27933 ft 475 kts 347°
2026-05-04 11:19 42.73666 -73.29889 27911 ft 475 kts 347°
2026-05-04 11:19 42.76950 -73.30465 27923 ft 475 kts 347°
2026-05-04 11:19 42.80222 -73.31041 27947 ft 475 kts 347°
2026-05-04 11:20 42.83461 -73.31610 27921 ft 475 kts 347°
2026-05-04 11:20 42.86735 -73.32183 27924 ft 474 kts 347°
2026-05-04 11:20 42.90015 -73.32757 27894 ft 474 kts 347°
2026-05-04 11:20 42.93288 -73.33333 27896 ft 474 kts 347°
2026-05-04 11:22 43.15154 -73.41508 27893 ft 464 kts 336°
2026-05-04 11:22 43.18222 -73.42902 27880 ft 465 kts 336°
2026-05-04 11:23 43.21296 -73.44292 27895 ft 465 kts 336°
2026-05-04 11:23 43.24374 -73.45680 27895 ft 465 kts 336°
2026-05-04 11:24 43.42815 -73.54016 27896 ft 465 kts 336°
2026-05-04 11:25 43.45925 -73.55428 27894 ft 465 kts 336°
2026-05-04 11:25 43.48997 -73.56825 27873 ft 465 kts 336°
2026-05-04 11:25 43.52065 -73.58222 27885 ft 464 kts 336°
2026-05-04 11:26 43.58155 -73.60997 27877 ft 463 kts 336°
2026-05-04 11:27 43.79628 -73.70833 27852 ft 466 kts 336°
2026-05-04 11:28 43.82702 -73.72247 27858 ft 466 kts 336°
2026-05-04 11:28 43.85779 -73.73663 27844 ft 466 kts 336°
2026-05-04 11:28 43.88857 -73.75082 27840 ft 466 kts 336°
2026-05-04 11:28 43.91938 -73.76504 27827 ft 465 kts 335°
2026-05-04 11:29 43.94969 -73.77903 27831 ft 465 kts 336°
2026-05-04 11:29 43.98041 -73.79324 27814 ft 465 kts 336°
2026-05-04 11:29 44.01114 -73.80747 27820 ft 464 kts 336°
2026-05-04 11:29 44.04180 -73.82168 27838 ft 464 kts 336°
2026-05-04 11:31 44.25595 -73.92134 27795 ft 461 kts 335°
2026-05-04 11:33 44.46839 -74.02095 27799 ft 462 kts 335°
2026-05-04 11:33 44.49883 -74.03528 27768 ft 462 kts 335°
2026-05-04 11:33 44.52930 -74.04963 27783 ft 462 kts 336°
2026-05-04 11:34 44.55981 -74.06400 27774 ft 462 kts 336°
2026-05-04 11:34 44.59036 -74.07840 27784 ft 463 kts 336°
2026-05-04 11:34 44.62087 -74.09278 27769 ft 463 kts 336°
2026-05-04 11:34 44.65140 -74.10719 27763 ft 463 kts 335°
2026-05-04 11:35 44.68191 -74.12167 27778 ft 463 kts 335°
2026-05-04 11:35 44.71210 -74.13708 27765 ft 460 kts 332°
2026-05-04 11:35 44.74108 -74.15592 27763 ft 456 kts 327°
2026-05-04 11:35 44.76823 -74.17835 27757 ft 452 kts 323°
2026-05-04 11:36 44.79505 -74.20164 27748 ft 452 kts 323°
2026-05-04 11:36 44.82188 -74.22489 27756 ft 453 kts 323°
2026-05-04 11:36 44.84874 -74.24805 27746 ft 454 kts 323°
2026-05-04 11:36 44.87576 -74.27124 27746 ft 454 kts 324°
2026-05-04 11:37 44.90282 -74.29439 27757 ft 455 kts 324°
2026-05-04 11:37 44.92989 -74.31751 27743 ft 455 kts 324°
2026-05-04 11:37 44.95691 -74.34057 27741 ft 455 kts 324°
2026-05-04 11:37 44.98399 -74.36369 27739 ft 455 kts 324°
2026-05-04 11:38 45.01109 -74.38686 27735 ft 455 kts 324°
2026-05-04 11:38 45.03778 -74.40970 27732 ft 454 kts 324°
2026-05-04 11:38 45.06481 -74.43287 27735 ft 454 kts 324°
2026-05-04 11:38 45.09182 -74.45605 27733 ft 454 kts 324°
2026-05-04 11:39 45.11882 -74.47925 27766 ft 452 kts 324°
2026-05-04 11:39 45.14557 -74.50223 27733 ft 446 kts 324°
2026-05-04 11:40 45.30451 -74.63952 27732 ft 447 kts 324°
2026-05-04 11:41 45.33105 -74.66253 27742 ft 447 kts 324°
2026-05-04 11:41 45.35760 -74.68557 27728 ft 447 kts 324°
2026-05-04 11:41 45.38418 -74.70866 27725 ft 448 kts 323°
2026-05-04 11:41 45.41074 -74.73177 27735 ft 446 kts 324°
2026-05-04 11:42 45.43717 -74.75476 27721 ft 445 kts 324°
2026-05-04 11:42 45.46352 -74.77772 27713 ft 443 kts 324°
2026-05-04 11:42 45.48976 -74.80061 27729 ft 441 kts 324°
2026-05-04 11:42 45.51592 -74.82347 27724 ft 440 kts 324°
2026-05-04 11:43 45.54206 -74.84633 27729 ft 440 kts 324°
2026-05-04 11:43 45.56811 -74.86915 27749 ft 439 kts 323°
2026-05-04 11:43 45.59418 -74.89200 27729 ft 439 kts 323°
2026-05-04 11:43 45.61990 -74.91458 27730 ft 439 kts 323°
2026-05-04 11:44 45.64590 -74.93744 27728 ft 439 kts 323°
2026-05-04 11:44 45.67189 -74.96030 27721 ft 439 kts 323°
2026-05-04 11:44 45.69788 -74.98319 27733 ft 439 kts 324°
2026-05-04 11:44 45.72390 -75.00610 27724 ft 439 kts 324°
2026-05-04 11:45 45.74986 -75.02901 27716 ft 438 kts 324°
2026-05-04 11:45 45.77589 -75.05200 27720 ft 438 kts 324°
2026-05-04 11:45 45.80183 -75.07495 27722 ft 437 kts 323°
2026-05-04 11:45 45.82770 -75.09786 27721 ft 437 kts 323°
2026-05-04 11:46 45.84483 -75.11304 27723 ft 437 kts 323°
2026-05-04 11:46 45.87072 -75.13601 27726 ft 437 kts 323°
2026-05-04 11:46 45.89657 -75.15896 27718 ft 437 kts 323°
2026-05-04 11:46 45.92246 -75.18197 27720 ft 437 kts 323°
2026-05-04 11:47 45.94830 -75.20496 27722 ft 437 kts 323°
2026-05-04 11:47 45.97419 -75.22803 27706 ft 437 kts 324°
2026-05-04 11:47 45.99997 -75.25102 27721 ft 435 kts 324°
2026-05-04 11:47 46.02567 -75.27395 27742 ft 435 kts 324°
2026-05-04 11:48 46.05139 -75.29695 27722 ft 434 kts 324°
2026-05-04 11:48 46.07704 -75.31990 27717 ft 434 kts 324°
2026-05-04 11:48 46.10262 -75.34283 27719 ft 433 kts 324°
2026-05-04 11:48 46.12823 -75.36579 27720 ft 433 kts 324°
2026-05-04 11:49 46.15386 -75.38881 27712 ft 433 kts 324°
2026-05-04 11:49 46.17907 -75.41148 27712 ft 433 kts 324°
2026-05-04 11:49 46.20495 -75.43476 27707 ft 433 kts 324°
2026-05-04 11:49 46.23048 -75.45777 27715 ft 433 kts 324°
2026-05-04 11:50 46.25577 -75.48056 27734 ft 433 kts 324°
2026-05-04 11:50 46.28134 -75.50364 27716 ft 433 kts 324°
2026-05-04 11:50 46.30688 -75.52672 27713 ft 432 kts 324°
2026-05-04 11:50 46.33235 -75.54977 27709 ft 432 kts 324°
2026-05-04 11:51 46.35784 -75.57286 27705 ft 431 kts 324°
2026-05-04 11:51 46.38325 -75.59590 27703 ft 430 kts 324°
2026-05-04 11:51 46.40861 -75.61893 27697 ft 430 kts 324°
2026-05-04 11:51 46.43390 -75.64193 27698 ft 429 kts 324°
2026-05-04 11:52 46.45918 -75.66493 27708 ft 429 kts 324°
2026-05-04 11:52 46.48448 -75.68798 27705 ft 429 kts 324°
2026-05-04 11:52 46.50976 -75.71104 27696 ft 430 kts 324°
2026-05-04 11:52 46.53511 -75.73419 27708 ft 431 kts 324°
2026-05-04 11:53 46.56049 -75.75739 27684 ft 431 kts 324°
2026-05-04 11:53 46.58588 -75.78061 27690 ft 430 kts 324°
2026-05-04 11:53 46.61092 -75.80352 27692 ft 429 kts 324°
2026-05-04 11:53 46.63648 -75.82696 27698 ft 429 kts 324°
2026-05-04 11:55 46.81253 -75.98916 27693 ft 429 kts 324°
2026-05-04 11:55 46.83768 -76.01243 27691 ft 429 kts 324°
2026-05-04 11:56 46.86292 -76.03582 27688 ft 428 kts 325°
2026-05-04 11:56 46.88812 -76.05917 27698 ft 428 kts 324°
2026-05-04 11:56 46.91319 -76.08244 27691 ft 427 kts 324°
2026-05-04 11:56 46.93826 -76.10573 27688 ft 427 kts 324°
2026-05-04 11:57 46.96333 -76.12906 27726 ft 426 kts 324°
2026-05-04 11:57 46.98835 -76.15238 27694 ft 427 kts 324°
2026-05-04 11:57 47.01339 -76.17574 27707 ft 427 kts 324°
2026-05-04 11:57 47.03851 -76.19919 27699 ft 427 kts 324°
2026-05-04 11:58 47.06355 -76.22259 27695 ft 427 kts 324°
2026-05-04 11:58 47.08862 -76.24605 27692 ft 427 kts 324°
2026-05-04 11:58 47.11364 -76.26950 27688 ft 427 kts 324°
2026-05-04 11:58 47.13869 -76.29300 27663 ft 427 kts 325°
2026-05-04 11:59 47.16372 -76.31648 27683 ft 426 kts 325°
2026-05-04 11:59 47.18864 -76.33990 27671 ft 425 kts 325°
2026-05-04 11:59 47.21321 -76.36302 27705 ft 424 kts 325°
2026-05-04 11:59 47.23808 -76.38645 27695 ft 424 kts 325°
2026-05-04 12:00 47.26292 -76.40988 27689 ft 423 kts 325°
2026-05-04 12:00 47.28770 -76.43329 27685 ft 423 kts 324°
2026-05-04 12:00 47.31247 -76.45670 27684 ft 422 kts 324°
2026-05-04 12:00 47.33717 -76.48012 27681 ft 422 kts 324°
2026-05-04 12:01 47.36189 -76.50363 27681 ft 424 kts 324°
2026-05-04 12:01 47.38676 -76.52728 27852 ft 426 kts 324°
2026-05-04 12:02 47.53433 -76.66789 29620 ft 419 kts 324°
2026-05-04 12:03 47.58341 -76.71484 29680 ft 419 kts 324°
2026-05-04 12:03 47.63223 -76.76163 29682 ft 417 kts 324°
2026-05-04 12:04 47.68078 -76.80828 29708 ft 416 kts 324°
2026-05-04 12:04 47.72941 -76.85513 29693 ft 417 kts 324°
2026-05-04 12:05 47.77786 -76.90192 29676 ft 419 kts 324°
2026-05-04 12:05 47.82712 -76.94956 29689 ft 420 kts 324°
2026-05-04 12:06 47.87585 -76.99679 29666 ft 421 kts 324°
2026-05-04 12:06 47.92486 -77.04443 29707 ft 421 kts 324°
2026-05-04 12:07 47.97417 -77.09249 29685 ft 424 kts 324°
2026-05-04 12:07 48.02365 -77.14080 29680 ft 425 kts 324°
2026-05-04 12:08 48.07273 -77.18879 29654 ft 416 kts 324°
2026-05-04 12:08 48.12112 -77.23627 29674 ft 416 kts 324°
2026-05-04 12:09 48.16958 -77.28393 29665 ft 418 kts 324°
2026-05-04 12:09 48.21825 -77.33189 29662 ft 419 kts 324°
2026-05-04 12:10 48.26708 -77.38012 29668 ft 420 kts 324°
2026-05-04 12:10 48.31580 -77.42835 29660 ft 419 kts 324°
2026-05-04 12:11 48.36438 -77.47656 29657 ft 417 kts 324°
2026-05-04 12:11 48.41246 -77.52438 29693 ft 416 kts 324°
2026-05-04 12:12 48.46099 -77.57277 29680 ft 415 kts 324°
2026-05-04 12:12 48.50880 -77.62055 29661 ft 414 kts 324°
2026-05-04 12:14 48.70101 -77.81373 29663 ft 415 kts 324°
2026-05-04 12:15 48.74907 -77.86231 29667 ft 415 kts 324°
2026-05-04 12:15 48.79712 -77.91100 29640 ft 415 kts 324°
2026-05-04 12:16 48.84509 -77.95973 29644 ft 415 kts 324°
2026-05-04 12:16 48.89318 -78.00869 29649 ft 415 kts 324°
2026-05-04 12:17 48.94086 -78.05735 29648 ft 416 kts 324°
2026-05-04 12:17 48.98887 -78.10643 29631 ft 415 kts 323°
2026-05-04 12:18 49.03682 -78.15559 29635 ft 415 kts 323°
2026-05-04 12:18 49.08472 -78.20483 29631 ft 415 kts 323°
2026-05-04 12:19 49.13253 -78.25408 29650 ft 414 kts 323°
2026-05-04 12:19 49.18034 -78.30346 29634 ft 415 kts 323°
2026-05-04 12:20 49.22814 -78.35293 29629 ft 415 kts 323°
2026-05-04 12:20 49.27598 -78.40254 29594 ft 414 kts 323°
2026-05-04 12:21 49.32364 -78.45211 29618 ft 414 kts 323°
2026-05-04 12:21 49.37097 -78.50145 29615 ft 414 kts 323°
2026-05-04 12:22 49.41859 -78.55134 29608 ft 414 kts 323°
2026-05-04 12:22 49.46621 -78.60130 29612 ft 414 kts 323°
2026-05-04 12:23 49.51384 -78.65131 29594 ft 414 kts 323°
2026-05-04 12:23 49.56145 -78.70139 29599 ft 415 kts 323°
2026-05-04 12:24 49.60905 -78.75158 29607 ft 414 kts 322°
2026-05-04 12:24 49.65657 -78.80183 29616 ft 414 kts 322°
2026-05-04 12:25 49.70417 -78.85231 29595 ft 415 kts 322°
2026-05-04 12:25 49.75171 -78.90283 29596 ft 415 kts 322°
2026-05-04 12:26 49.79929 -78.95351 29586 ft 415 kts 322°
2026-05-04 12:26 49.84652 -79.00395 29587 ft 415 kts 322°
2026-05-04 12:27 49.89407 -79.05483 29557 ft 415 kts 321°
2026-05-04 12:27 49.94157 -79.10579 29580 ft 415 kts 321°
2026-05-04 12:28 49.98108 -79.14829 29577 ft 416 kts 321°
2026-05-04 12:28 50.02870 -79.19962 29566 ft 416 kts 321°
2026-05-04 12:29 50.07628 -79.25102 29573 ft 416 kts 321°
2026-05-04 12:29 50.12381 -79.30250 29564 ft 416 kts 321°
2026-05-04 12:30 50.17131 -79.35408 29577 ft 417 kts 321°
2026-05-04 12:30 50.21896 -79.40595 29551 ft 418 kts 320°
2026-05-04 12:31 50.26667 -79.45800 29553 ft 418 kts 320°
2026-05-04 12:31 50.31436 -79.51017 29552 ft 419 kts 320°
2026-05-04 12:32 50.38572 -79.58847 29550 ft 419 kts 320°
2026-05-04 12:33 50.43340 -79.64095 29552 ft 419 kts 320°
2026-05-04 12:33 50.48121 -79.69371 29543 ft 420 kts 320°
2026-05-04 12:34 50.52895 -79.74651 29510 ft 420 kts 320°
2026-05-04 12:34 50.57671 -79.79947 29529 ft 420 kts 320°
2026-05-04 12:35 50.62454 -79.85266 29529 ft 421 kts 320°
2026-05-04 12:35 50.67236 -79.90596 29521 ft 421 kts 320°
2026-05-04 12:36 50.72024 -79.95946 29525 ft 422 kts 319°
2026-05-04 12:36 50.76811 -80.01309 29522 ft 422 kts 319°
2026-05-04 12:37 50.81597 -80.06683 29508 ft 421 kts 319°
2026-05-04 12:37 50.86340 -80.12022 29511 ft 421 kts 319°
2026-05-04 12:38 50.91109 -80.17406 29508 ft 421 kts 319°
2026-05-04 12:38 50.95882 -80.22806 29511 ft 421 kts 319°
2026-05-04 12:39 51.00651 -80.28216 29504 ft 421 kts 319°
2026-05-04 12:39 51.05420 -80.33637 29505 ft 421 kts 319°
2026-05-04 12:40 51.10184 -80.39065 29501 ft 421 kts 319°
2026-05-04 12:40 51.14944 -80.44502 29507 ft 421 kts 319°
2026-05-04 12:41 51.19712 -80.49959 29526 ft 422 kts 319°
2026-05-04 12:41 51.24501 -80.55441 29512 ft 424 kts 319°
2026-05-04 12:42 51.29292 -80.60963 29503 ft 425 kts 318°
2026-05-04 12:42 51.34071 -80.66438 29501 ft 425 kts 319°
2026-05-04 12:43 51.38897 -80.71935 29502 ft 426 kts 319°
2026-05-04 12:43 51.43726 -80.77431 29498 ft 425 kts 319°
2026-05-04 12:44 51.48548 -80.82931 29494 ft 426 kts 319°
2026-05-04 12:44 51.53382 -80.88459 29490 ft 426 kts 318°
2026-05-04 12:45 51.58220 -80.94007 29486 ft 427 kts 318°
2026-05-04 12:45 51.63065 -80.99579 29487 ft 428 kts 318°
2026-05-04 12:46 51.67911 -81.05165 29482 ft 429 kts 318°
2026-05-04 12:46 51.72759 -81.10770 29489 ft 429 kts 318°
2026-05-04 12:47 51.77584 -81.16364 29478 ft 430 kts 318°
2026-05-04 12:47 51.82435 -81.22002 29474 ft 429 kts 317°
2026-05-04 12:48 51.87293 -81.27665 29474 ft 431 kts 317°
2026-05-04 12:48 51.92170 -81.33367 29476 ft 433 kts 317°
2026-05-04 12:49 51.97068 -81.39107 29493 ft 435 kts 317°
2026-05-04 12:49 52.01975 -81.44871 29471 ft 435 kts 317°
2026-05-04 12:50 52.06872 -81.50639 29463 ft 434 kts 317°
2026-05-04 12:50 52.11724 -81.56372 29461 ft 433 kts 317°
2026-05-04 12:51 52.16590 -81.62137 29454 ft 433 kts 316°
2026-05-04 12:51 52.21468 -81.67940 29460 ft 436 kts 316°
2026-05-04 12:52 52.26384 -81.73800 29457 ft 439 kts 316°
2026-05-04 12:52 52.31328 -81.79705 29459 ft 441 kts 316°
2026-05-04 12:53 52.36278 -81.85633 29452 ft 441 kts 316°
2026-05-04 12:53 52.41217 -81.91565 29447 ft 439 kts 316°
2026-05-04 12:54 52.46136 -81.97492 29445 ft 438 kts 316°
2026-05-04 12:54 52.51040 -82.03420 29460 ft 438 kts 315°
2026-05-04 12:55 52.55962 -82.09392 29464 ft 441 kts 315°
2026-05-04 12:55 52.60914 -82.15413 29453 ft 444 kts 315°
2026-05-04 12:56 52.65892 -82.21479 29451 ft 445 kts 315°
2026-05-04 12:56 52.70846 -82.27531 29450 ft 446 kts 315°
2026-05-04 12:57 52.75826 -82.33635 29439 ft 446 kts 315°
2026-05-04 12:57 52.80798 -82.39749 29451 ft 446 kts 316°
2026-05-04 12:58 52.85783 -82.45897 29436 ft 447 kts 315°
2026-05-04 12:58 52.90771 -82.52069 29450 ft 448 kts 315°
2026-05-04 12:59 52.95767 -82.58267 29447 ft 450 kts 315°
2026-05-04 12:59 53.00780 -82.64503 29444 ft 451 kts 315°
2026-05-04 13:00 53.05800 -82.70766 29444 ft 452 kts 316°
2026-05-04 13:00 53.10819 -82.77047 29447 ft 451 kts 316°
2026-05-04 13:01 53.15834 -82.83341 29452 ft 451 kts 316°
2026-05-04 13:01 53.20843 -82.89662 29445 ft 452 kts 315°
2026-05-04 13:02 53.25858 -82.96010 29447 ft 453 kts 315°
2026-05-04 13:02 53.30860 -83.02347 29443 ft 454 kts 315°
2026-05-04 13:03 53.35894 -83.08738 29449 ft 455 kts 315°
2026-05-04 13:03 53.40933 -83.15158 29450 ft 455 kts 315°
2026-05-04 13:04 53.45970 -83.21594 29443 ft 455 kts 315°
2026-05-04 13:04 53.51006 -83.28052 29452 ft 455 kts 314°
2026-05-04 13:05 53.56057 -83.34556 29493 ft 458 kts 315°
2026-05-04 13:05 53.61133 -83.41104 29459 ft 459 kts 315°
2026-05-04 13:06 53.66206 -83.47664 29434 ft 459 kts 315°
2026-05-04 13:06 53.71270 -83.54237 29441 ft 458 kts 315°
2026-05-04 13:07 53.76313 -83.60805 29446 ft 458 kts 315°
2026-05-04 13:07 53.81347 -83.67382 29460 ft 457 kts 315°
2026-05-04 13:08 53.86381 -83.73982 29460 ft 458 kts 315°
2026-05-04 13:08 53.91392 -83.80573 29459 ft 459 kts 315°
2026-05-04 13:09 53.96448 -83.87237 29461 ft 460 kts 315°
2026-05-04 13:09 54.01513 -83.93937 29468 ft 461 kts 315°
2026-05-04 13:10 54.06585 -84.00666 29465 ft 462 kts 314°
2026-05-04 13:10 54.10795 -84.06268 29496 ft 462 kts 314°
2026-05-04 13:11 54.15850 -84.13013 29473 ft 461 kts 314°
2026-05-04 13:11 54.20884 -84.19754 29470 ft 459 kts 314°
2026-05-04 13:12 54.25898 -84.26490 29474 ft 457 kts 314°
2026-05-04 13:12 54.30896 -84.33227 29477 ft 457 kts 314°
2026-05-04 13:13 54.35892 -84.39982 29482 ft 457 kts 314°
2026-05-04 13:13 54.40883 -84.46755 29487 ft 458 kts 315°
2026-05-04 13:14 54.45888 -84.53565 29492 ft 460 kts 315°
2026-05-04 13:14 54.50909 -84.60418 29488 ft 461 kts 314°
2026-05-04 13:15 54.55944 -84.67312 29490 ft 463 kts 314°
2026-05-04 13:15 54.60991 -84.74249 29497 ft 465 kts 314°
2026-05-04 13:16 54.66027 -84.81190 29505 ft 467 kts 315°
2026-05-04 13:16 54.71121 -84.88234 29495 ft 469 kts 315°
2026-05-04 13:17 54.76220 -84.95306 29498 ft 470 kts 315°
2026-05-04 13:17 54.81324 -85.02408 29494 ft 470 kts 315°
2026-05-04 13:18 54.86425 -85.09533 29501 ft 470 kts 315°
2026-05-04 13:18 54.91522 -85.16678 29522 ft 471 kts 316°
2026-05-04 13:19 54.96642 -85.23885 29510 ft 476 kts 316°
2026-05-04 13:19 55.01816 -85.31186 29515 ft 480 kts 316°
2026-05-04 13:20 55.06992 -85.38508 29497 ft 483 kts 316°
2026-05-04 13:20 55.12210 -85.45917 29488 ft 483 kts 316°
2026-05-04 13:21 55.17414 -85.53333 29493 ft 482 kts 316°
2026-05-04 13:21 55.22600 -85.60757 29497 ft 482 kts 317°
2026-05-04 13:22 55.27816 -85.68251 29520 ft 487 kts 317°
2026-05-04 13:22 55.33067 -85.75812 29514 ft 488 kts 317°
2026-05-04 13:23 55.38312 -85.83391 29513 ft 488 kts 317°
2026-05-04 13:23 55.43558 -85.91001 29521 ft 488 kts 317°
2026-05-04 13:24 55.48785 -85.98612 29528 ft 487 kts 317°
2026-05-04 13:24 55.54001 -86.06235 29525 ft 486 kts 317°
2026-05-04 13:25 55.61794 -86.17677 29530 ft 485 kts 317°
2026-05-04 13:25 55.66983 -86.25326 29529 ft 486 kts 317°
2026-05-04 13:26 55.72141 -86.32957 29531 ft 486 kts 317°
2026-05-04 13:26 55.77334 -86.40669 29538 ft 486 kts 317°
2026-05-04 13:27 55.82522 -86.48399 29535 ft 486 kts 317°
2026-05-04 13:27 55.87707 -86.56153 29538 ft 486 kts 317°
2026-05-04 13:28 55.92882 -86.63923 29550 ft 486 kts 317°
2026-05-04 13:28 55.98060 -86.71723 29544 ft 486 kts 317°
2026-05-04 13:29 56.03219 -86.79524 29547 ft 486 kts 317°
2026-05-04 13:29 56.08349 -86.87308 29556 ft 486 kts 317°
2026-05-04 13:30 56.13502 -86.95156 29552 ft 486 kts 317°
2026-05-04 13:30 56.18652 -87.03028 29552 ft 486 kts 317°
2026-05-04 13:31 56.23792 -87.10912 29558 ft 486 kts 317°
2026-05-04 13:31 56.28925 -87.18817 29574 ft 486 kts 317°
2026-05-04 13:32 56.34057 -87.26749 29566 ft 486 kts 317°
2026-05-04 13:32 56.39187 -87.34704 29570 ft 486 kts 316°
2026-05-04 13:33 56.44313 -87.42683 29567 ft 486 kts 317°
2026-05-04 13:33 56.49402 -87.50634 29570 ft 486 kts 316°
2026-05-04 13:34 56.54511 -87.58647 29573 ft 486 kts 317°
2026-05-04 13:34 56.59621 -87.66691 29575 ft 486 kts 317°
2026-05-04 13:35 56.67272 -87.78792 29577 ft 486 kts 317°
2026-05-04 13:36 56.72362 -87.86879 29573 ft 486 kts 317°
2026-05-04 13:36 56.77449 -87.94991 29572 ft 485 kts 317°
2026-05-04 13:37 56.82531 -88.03126 29573 ft 485 kts 317°
2026-05-04 13:37 56.87602 -88.11273 29573 ft 485 kts 317°
2026-05-04 13:38 56.92672 -88.19450 29565 ft 485 kts 317°
2026-05-04 13:38 56.97727 -88.27634 29575 ft 485 kts 317°
2026-05-04 13:39 57.02779 -88.35843 29579 ft 485 kts 317°
2026-05-04 13:39 57.07791 -88.44019 29580 ft 485 kts 317°
2026-05-04 13:40 57.12832 -88.52273 29591 ft 485 kts 317°
2026-05-04 13:40 57.17866 -88.60546 29573 ft 485 kts 317°
2026-05-04 13:41 57.22896 -88.68843 29575 ft 485 kts 316°
2026-05-04 13:41 57.27920 -88.77164 29579 ft 485 kts 316°
2026-05-04 13:42 57.35440 -88.89678 29568 ft 484 kts 316°
2026-05-04 13:42 57.40440 -88.98038 29573 ft 484 kts 317°
2026-05-04 13:43 57.45437 -89.06434 29567 ft 484 kts 316°
2026-05-04 13:43 57.50426 -89.14856 29568 ft 484 kts 316°
2026-05-04 13:44 57.55417 -89.23293 29581 ft 485 kts 316°
2026-05-04 13:44 57.60408 -89.31761 29580 ft 485 kts 316°
2026-05-04 13:45 57.65405 -89.40273 29565 ft 485 kts 316°
2026-05-04 13:45 57.70385 -89.48791 29577 ft 485 kts 316°
2026-05-04 13:46 57.75331 -89.57281 29577 ft 486 kts 316°
2026-05-04 13:46 57.80305 -89.65852 29578 ft 486 kts 316°
2026-05-04 13:47 57.85280 -89.74472 29567 ft 486 kts 316°
2026-05-04 13:47 57.90251 -89.83086 29583 ft 486 kts 316°
2026-05-04 13:48 57.95227 -89.91715 29573 ft 487 kts 316°
2026-05-04 13:48 58.00183 -90.00424 29568 ft 486 kts 315°
2026-05-04 13:49 58.04838 -90.09646 29578 ft 486 kts 311°
2026-05-04 13:49 58.09367 -90.19167 29581 ft 488 kts 311°
2026-05-04 13:50 58.13900 -90.28639 29577 ft 489 kts 311°
2026-05-04 13:50 58.18499 -90.38155 29585 ft 489 kts 312°
2026-05-04 13:51 58.23104 -90.47668 29575 ft 489 kts 312°
2026-05-04 13:51 58.27700 -90.57198 29578 ft 489 kts 312°
2026-05-04 13:52 58.34573 -90.71536 29568 ft 489 kts 312°
2026-05-04 13:53 58.39148 -90.81134 29579 ft 488 kts 312°
2026-05-04 13:53 58.43708 -90.90740 29576 ft 488 kts 311°
2026-05-04 13:54 58.49770 -91.03572 29574 ft 488 kts 312°
2026-05-04 13:55 58.56585 -91.18083 29583 ft 489 kts 311°
2026-05-04 13:55 58.63395 -91.32675 29579 ft 489 kts 311°
2026-05-04 13:56 58.67930 -91.42444 29585 ft 489 kts 311°
2026-05-04 13:57 58.74688 -91.57077 29600 ft 490 kts 311°
2026-05-04 13:58 58.83710 -91.76760 29592 ft 490 kts 311°
2026-05-04 13:58 58.90460 -91.91597 29589 ft 490 kts 311°
2026-05-04 13:59 58.94949 -92.01518 29597 ft 489 kts 311°
2026-05-04 14:00 59.01668 -92.16446 29589 ft 490 kts 311°
2026-05-04 14:00 59.08369 -92.31432 29615 ft 490 kts 311°
2026-05-04 14:01 59.12840 -92.41481 29619 ft 491 kts 311°
2026-05-04 14:02 59.19539 -92.56623 29610 ft 491 kts 311°
2026-05-04 14:02 59.23998 -92.66758 29621 ft 491 kts 311°
2026-05-04 14:03 59.28451 -92.76926 29622 ft 492 kts 311°
2026-05-04 14:03 59.32907 -92.87148 29829 ft 495 kts 311°
2026-05-04 14:03 59.35149 -92.92303 30108 ft 494 kts 311°
2026-05-04 14:04 59.39571 -93.02514 30649 ft 492 kts 311°
2026-05-04 14:04 59.41784 -93.07643 30875 ft 492 kts 311°
2026-05-04 14:04 59.43996 -93.12781 31089 ft 493 kts 311°
2026-05-04 14:05 59.48421 -93.23087 31504 ft 493 kts 310°
2026-05-04 14:05 59.50632 -93.28255 31574 ft 494 kts 311°
2026-05-04 14:06 59.55054 -93.38618 31658 ft 493 kts 311°
2026-05-04 14:06 59.59415 -93.48895 31654 ft 482 kts 311°
2026-05-04 14:07 59.63667 -93.58970 31651 ft 472 kts 310°
2026-05-04 14:07 59.67831 -93.68874 31665 ft 464 kts 310°
2026-05-04 14:08 59.71913 -93.78617 31668 ft 457 kts 310°
2026-05-04 14:08 59.75938 -93.88260 31676 ft 450 kts 310°
2026-05-04 14:09 59.81843 -94.02491 31681 ft 440 kts 310°
2026-05-04 14:10 59.87591 -94.16437 31679 ft 429 kts 310°
2026-05-04 14:10 59.91335 -94.25558 31700 ft 421 kts 310°
2026-05-04 14:11 59.95014 -94.34553 31576 ft 417 kts 310°
2026-05-04 14:11 59.98684 -94.43544 31374 ft 415 kts 310°
2026-05-04 14:11 60.00503 -94.48018 31316 ft 413 kts 310°
2026-05-04 14:12 60.02313 -94.52476 31184 ft 413 kts 310°
2026-05-04 14:12 60.04120 -94.56939 31089 ft 412 kts 310°
2026-05-04 14:12 60.07698 -94.65801 30904 ft 410 kts 310°
2026-05-04 14:13 60.09480 -94.70228 30875 ft 407 kts 310°
2026-05-04 14:13 60.11256 -94.74650 30721 ft 408 kts 310°
2026-05-04 14:13 60.13038 -94.79094 30555 ft 409 kts 310°
2026-05-04 14:14 60.16575 -94.87939 30474 ft 405 kts 310°
2026-05-04 14:14 60.20095 -94.96780 30264 ft 404 kts 310°
2026-05-04 14:14 60.21845 -95.01185 30194 ft 403 kts 310°
2026-05-04 14:15 60.25335 -95.09998 30021 ft 402 kts 310°
2026-05-04 14:15 60.28808 -95.18804 29876 ft 400 kts 310°
2026-05-04 14:16 60.32264 -95.27599 29707 ft 399 kts 310°
2026-05-04 14:16 60.33980 -95.31979 29639 ft 398 kts 310°
2026-05-04 14:17 60.37412 -95.40760 29364 ft 397 kts 310°
2026-05-04 14:17 60.39116 -95.45135 29365 ft 394 kts 310°
2026-05-04 14:17 60.42483 -95.53800 29173 ft 394 kts 310°
2026-05-04 14:18 60.44172 -95.58160 29130 ft 393 kts 310°
2026-05-04 14:18 60.47539 -95.66871 28939 ft 392 kts 310°
2026-05-04 14:19 60.50906 -95.75621 28799 ft 391 kts 310°
2026-05-04 14:19 60.54217 -95.84254 28674 ft 389 kts 310°
2026-05-04 14:20 60.57536 -95.92940 28547 ft 389 kts 310°
2026-05-04 14:20 60.60840 -96.01619 28455 ft 387 kts 310°
2026-05-04 14:21 60.64131 -96.10298 28269 ft 387 kts 310°
2026-05-04 14:21 60.65772 -96.14639 28233 ft 386 kts 310°
2026-05-04 14:21 60.69042 -96.23313 28141 ft 384 kts 310°
2026-05-04 14:22 60.72295 -96.31971 28065 ft 383 kts 310°
2026-05-04 14:22 60.73918 -96.36304 27980 ft 384 kts 310°
2026-05-04 14:22 60.75538 -96.40637 27913 ft 383 kts 310°
2026-05-04 14:23 60.78766 -96.49292 27798 ft 382 kts 309°
2026-05-04 14:23 60.80374 -96.53619 27722 ft 382 kts 309°
2026-05-04 14:23 60.81980 -96.57945 27668 ft 381 kts 309°
2026-05-04 14:24 60.83582 -96.62269 27621 ft 381 kts 309°
2026-05-04 14:24 60.85182 -96.66595 27576 ft 380 kts 309°
2026-05-04 14:24 60.86775 -96.70913 27534 ft 379 kts 309°
2026-05-04 14:24 60.88369 -96.75239 27435 ft 379 kts 309°
2026-05-04 14:25 60.89958 -96.79562 27416 ft 378 kts 309°
2026-05-04 14:25 60.93120 -96.88188 27311 ft 377 kts 309°
2026-05-04 14:25 60.94692 -96.92486 27298 ft 375 kts 309°
2026-05-04 14:26 60.96238 -96.96721 27243 ft 375 kts 309°
2026-05-04 14:26 60.97807 -97.01027 27175 ft 375 kts 309°
2026-05-04 14:26 60.99372 -97.05331 27140 ft 374 kts 309°
2026-05-04 14:26 61.00929 -97.09621 27088 ft 374 kts 309°
2026-05-04 14:27 61.02484 -97.13915 27036 ft 373 kts 309°
2026-05-04 14:27 61.04037 -97.18208 26992 ft 373 kts 309°
2026-05-04 14:27 61.05587 -97.22503 26943 ft 373 kts 309°
2026-05-04 14:27 61.07134 -97.26796 26935 ft 372 kts 308°
2026-05-04 14:28 61.08679 -97.31092 26874 ft 372 kts 308°
2026-05-04 14:28 61.10219 -97.35385 26823 ft 372 kts 308°
2026-05-04 14:28 61.11756 -97.39674 26793 ft 371 kts 308°
2026-05-04 14:28 61.13291 -97.43967 26730 ft 371 kts 308°
2026-05-04 14:29 61.16344 -97.52529 26677 ft 369 kts 308°
2026-05-04 14:29 61.19392 -97.61106 26582 ft 368 kts 308°
2026-05-04 14:30 61.20905 -97.65379 26562 ft 367 kts 308°
2026-05-04 14:30 61.22419 -97.69658 26503 ft 367 kts 308°
2026-05-04 14:30 61.25423 -97.78176 26460 ft 365 kts 308°
2026-05-04 14:31 61.26925 -97.82448 26412 ft 365 kts 308°
2026-05-04 14:31 61.29918 -97.90978 26340 ft 364 kts 308°
2026-05-04 14:32 61.32878 -97.99451 26279 ft 364 kts 308°
2026-05-04 14:32 61.34365 -98.03717 26242 ft 364 kts 307°
2026-05-04 14:32 61.35850 -98.07987 26192 ft 364 kts 307°
2026-05-04 14:32 61.37334 -98.12259 26183 ft 363 kts 307°
2026-05-04 14:33 61.38812 -98.16525 26150 ft 363 kts 307°
2026-05-04 14:33 61.40286 -98.20786 26111 ft 362 kts 307°
2026-05-04 14:33 61.41758 -98.25049 26069 ft 362 kts 307°
2026-05-04 14:33 61.43232 -98.29326 26035 ft 362 kts 307°
2026-05-04 14:34 61.44700 -98.33593 26017 ft 361 kts 307°
2026-05-04 14:34 61.46167 -98.37863 25983 ft 361 kts 307°
2026-05-04 14:34 61.47135 -98.40686 25951 ft 361 kts 307°
2026-05-04 14:34 61.48598 -98.44960 25929 ft 361 kts 307°
2026-05-04 14:35 61.50055 -98.49222 25921 ft 359 kts 307°
2026-05-04 14:35 61.51504 -98.53472 25942 ft 358 kts 307°
2026-05-04 14:35 61.52948 -98.57715 25883 ft 358 kts 307°
2026-05-04 14:35 61.54394 -98.61968 25847 ft 358 kts 307°
2026-05-04 14:36 61.55837 -98.66221 25839 ft 357 kts 307°
2026-05-04 14:36 61.57275 -98.70468 25789 ft 358 kts 307°
2026-05-04 14:36 61.58718 -98.74736 25767 ft 357 kts 307°
2026-05-04 14:36 61.60159 -98.79006 25747 ft 357 kts 307°
2026-05-04 14:37 61.61592 -98.83263 25708 ft 357 kts 307°
2026-05-04 14:37 61.63029 -98.87535 25697 ft 356 kts 307°
2026-05-04 14:37 61.64458 -98.91793 25678 ft 356 kts 306°
2026-05-04 14:37 61.65884 -98.96052 25647 ft 356 kts 306°
2026-05-04 14:38 61.67310 -99.00319 25608 ft 356 kts 306°
2026-05-04 14:38 61.68734 -99.04583 25590 ft 356 kts 306°
2026-05-04 14:38 61.70156 -99.08853 25583 ft 355 kts 306°
2026-05-04 14:38 61.71556 -99.13064 25573 ft 355 kts 306°
2026-05-04 14:39 61.72975 -99.17337 25553 ft 355 kts 306°
2026-05-04 14:39 61.74394 -99.21620 25534 ft 355 kts 306°
2026-05-04 14:39 61.75806 -99.25888 25528 ft 355 kts 306°
2026-05-04 14:40 61.78619 -99.34413 25580 ft 351 kts 306°
2026-05-04 14:40 61.80013 -99.38649 25566 ft 351 kts 306°
2026-05-04 14:40 61.81410 -99.42904 25502 ft 352 kts 306°
2026-05-04 14:40 61.82807 -99.47164 25509 ft 351 kts 306°
2026-05-04 14:41 61.84198 -99.51411 25501 ft 351 kts 306°
2026-05-04 14:41 61.85590 -99.55669 25480 ft 351 kts 306°
2026-05-04 14:41 61.88364 -99.64173 25446 ft 351 kts 306°
2026-05-04 14:42 61.91136 -99.72698 25415 ft 350 kts 306°
2026-05-04 14:42 61.92516 -99.76952 25407 ft 350 kts 306°
2026-05-04 14:42 61.93898 -99.81207 25407 ft 350 kts 306°
2026-05-04 14:43 61.95284 -99.85471 25409 ft 351 kts 306°
2026-05-04 14:43 61.96671 -99.89753 25453 ft 351 kts 306°
2026-05-04 14:43 61.98045 -99.94037 25519 ft 351 kts 305°
2026-05-04 14:43 61.99399 -99.98286 25546 ft 352 kts 305°
2026-05-04 14:44 62.00835 -100.02494 25565 ft 352 kts 308°
2026-05-04 14:44 62.02338 -100.06653 25623 ft 349 kts 309°
2026-05-04 14:44 62.03829 -100.10736 25625 ft 349 kts 309°
2026-05-04 14:44 62.05307 -100.14770 25570 ft 350 kts 309°
2026-05-04 14:45 62.06804 -100.18843 25594 ft 348 kts 309°
2026-05-04 14:45 62.08295 -100.22903 25582 ft 348 kts 309°
2026-05-04 14:45 62.09792 -100.26983 25537 ft 348 kts 309°
2026-05-04 14:45 62.11286 -100.31063 25527 ft 348 kts 309°
2026-05-04 14:46 62.12778 -100.35141 25528 ft 348 kts 309°
2026-05-04 14:46 62.14263 -100.39208 25494 ft 348 kts 309°
2026-05-04 14:46 62.15753 -100.43295 25443 ft 349 kts 309°
2026-05-04 14:46 62.17241 -100.47384 25438 ft 348 kts 309°
2026-05-04 14:47 62.18731 -100.51487 25447 ft 348 kts 309°
2026-05-04 14:47 62.20213 -100.55577 25435 ft 348 kts 309°
2026-05-04 14:47 62.21696 -100.59675 25423 ft 348 kts 309°
2026-05-04 14:47 62.23175 -100.63770 25411 ft 347 kts 308°
2026-05-04 14:48 62.24654 -100.67873 25404 ft 347 kts 308°
2026-05-04 14:48 62.26132 -100.71980 25391 ft 347 kts 308°
2026-05-04 14:48 62.27609 -100.76091 25380 ft 347 kts 308°
2026-05-04 14:48 62.29083 -100.80201 25363 ft 348 kts 308°
2026-05-04 14:49 62.30555 -100.84313 25370 ft 347 kts 308°
2026-05-04 14:49 62.32007 -100.88378 25376 ft 347 kts 308°
2026-05-04 14:49 62.33474 -100.92491 25375 ft 346 kts 308°
2026-05-04 14:49 62.34941 -100.96613 25350 ft 347 kts 308°
2026-05-04 14:50 62.36412 -101.00752 25331 ft 347 kts 308°
2026-05-04 14:50 62.37878 -101.04883 25330 ft 347 kts 308°
2026-05-04 14:50 62.39344 -101.09025 25285 ft 347 kts 308°
2026-05-04 14:50 62.40814 -101.13184 25251 ft 348 kts 308°
2026-05-04 14:51 62.42278 -101.17332 25264 ft 347 kts 307°
2026-05-04 14:51 62.43736 -101.21473 25288 ft 347 kts 308°
2026-05-04 14:51 62.45176 -101.25572 25270 ft 347 kts 308°
2026-05-04 14:51 62.46636 -101.29731 25256 ft 347 kts 307°
2026-05-04 14:52 62.48093 -101.33892 25268 ft 347 kts 307°
2026-05-04 14:52 62.49546 -101.38047 25273 ft 346 kts 308°
2026-05-04 14:52 62.50999 -101.42209 25260 ft 347 kts 308°
2026-05-04 14:52 62.52454 -101.46388 25255 ft 347 kts 308°
2026-05-04 14:53 62.53903 -101.50555 25273 ft 346 kts 307°
2026-05-04 14:53 62.55352 -101.54731 25263 ft 347 kts 307°
2026-05-04 14:53 62.56800 -101.58912 25260 ft 347 kts 308°
2026-05-04 14:53 62.58248 -101.63100 25269 ft 346 kts 308°
2026-05-04 14:54 62.59696 -101.67293 25275 ft 346 kts 307°
2026-05-04 14:54 62.61136 -101.71475 25268 ft 346 kts 308°
2026-05-04 14:54 62.62582 -101.75677 25252 ft 347 kts 307°
2026-05-04 14:54 62.64020 -101.79865 25253 ft 347 kts 306°
2026-05-04 14:55 62.65462 -101.84075 25246 ft 347 kts 306°
2026-05-04 14:55 62.66904 -101.88292 25239 ft 347 kts 307°
2026-05-04 14:55 62.68344 -101.92508 25233 ft 347 kts 306°
2026-05-04 14:55 62.69781 -101.96724 25287 ft 345 kts 306°
2026-05-04 14:56 62.71190 -102.00870 25305 ft 345 kts 306°
2026-05-04 14:56 62.72622 -102.05091 25275 ft 346 kts 306°
2026-05-04 14:56 62.74051 -102.09307 25297 ft 345 kts 306°
2026-05-04 14:56 62.75480 -102.13534 25296 ft 346 kts 306°
2026-05-04 14:57 62.76907 -102.17760 25289 ft 346 kts 306°
2026-05-04 14:57 62.78333 -102.21994 25301 ft 345 kts 306°
2026-05-04 14:57 62.79758 -102.26229 25283 ft 346 kts 306°
2026-05-04 14:57 62.81183 -102.30473 25292 ft 346 kts 306°
2026-05-04 14:58 62.82586 -102.34661 25309 ft 345 kts 306°
2026-05-04 14:58 62.84023 -102.38959 25330 ft 345 kts 306°
2026-05-04 14:58 62.85422 -102.43149 25330 ft 345 kts 306°
2026-05-04 14:58 62.86835 -102.47389 25325 ft 345 kts 306°
2026-05-04 14:59 62.88266 -102.51693 25307 ft 345 kts 306°
2026-05-04 14:59 62.89661 -102.55894 25315 ft 344 kts 305°
2026-05-04 14:59 62.92476 -102.64397 25316 ft 345 kts 305°
2026-05-04 15:00 62.93885 -102.68666 25337 ft 344 kts 306°
2026-05-04 15:00 62.95289 -102.72926 25347 ft 344 kts 305°
2026-05-04 15:00 62.96693 -102.77195 25331 ft 345 kts 305°
2026-05-04 15:01 62.99494 -102.85735 25361 ft 344 kts 305°
2026-05-04 15:01 63.00892 -102.90004 25368 ft 344 kts 305°
2026-05-04 15:01 63.02289 -102.94285 25344 ft 344 kts 305°
2026-05-04 15:01 63.03684 -102.98568 25371 ft 344 kts 305°
2026-05-04 15:02 63.05075 -103.02850 25379 ft 343 kts 305°
2026-05-04 15:02 63.06466 -103.07137 25358 ft 344 kts 304°
2026-05-04 15:02 63.07862 -103.11443 25378 ft 344 kts 304°
2026-05-04 15:02 63.09250 -103.15736 25398 ft 343 kts 305°
2026-05-04 15:03 63.10636 -103.20028 25377 ft 344 kts 304°
2026-05-04 15:03 63.12024 -103.24336 25360 ft 344 kts 305°
2026-05-04 15:03 63.13408 -103.28641 25403 ft 343 kts 303°
2026-05-04 15:03 63.14785 -103.32933 25420 ft 343 kts 304°
2026-05-04 15:04 63.16165 -103.37249 25377 ft 344 kts 304°
2026-05-04 15:04 63.17547 -103.41572 25382 ft 343 kts 304°
2026-05-04 15:04 63.18922 -103.45888 25399 ft 343 kts 303°
2026-05-04 15:04 63.20299 -103.50208 25398 ft 343 kts 304°
2026-05-04 15:05 63.21675 -103.54533 25393 ft 343 kts 304°
2026-05-04 15:05 63.23050 -103.58862 25395 ft 343 kts 303°
2026-05-04 15:05 63.24420 -103.63195 25413 ft 343 kts 303°
2026-05-04 15:05 63.25788 -103.67524 25414 ft 343 kts 304°
2026-05-04 15:06 63.27158 -103.71866 25397 ft 343 kts 304°
2026-05-04 15:06 63.28528 -103.76217 25394 ft 343 kts 304°
2026-05-04 15:06 63.29893 -103.80562 25416 ft 343 kts 303°
2026-05-04 15:07 63.32611 -103.89231 25466 ft 341 kts 304°
2026-05-04 15:07 63.33971 -103.93581 25453 ft 342 kts 303°
2026-05-04 15:07 63.35325 -103.97925 25447 ft 342 kts 303°
2026-05-04 15:07 63.36683 -104.02288 25450 ft 341 kts 303°
2026-05-04 15:08 63.38032 -104.06626 25470 ft 341 kts 303°
2026-05-04 15:08 63.39381 -104.10977 25462 ft 341 kts 303°
2026-05-04 15:08 63.40730 -104.15334 25451 ft 341 kts 302°
2026-05-04 15:08 63.42077 -104.19695 25481 ft 341 kts 303°
2026-05-04 15:09 63.43421 -104.24056 25482 ft 341 kts 303°
2026-05-04 15:09 63.44763 -104.28419 25482 ft 341 kts 302°
2026-05-04 15:09 63.46106 -104.32790 25483 ft 341 kts 303°
2026-05-04 15:10 63.48769 -104.41487 25486 ft 341 kts 302°
2026-05-04 15:10 63.50106 -104.45867 25478 ft 341 kts 303°
2026-05-04 15:10 63.52780 -104.54649 25495 ft 341 kts 302°
2026-05-04 15:11 63.54115 -104.59046 25497 ft 341 kts 302°
2026-05-04 15:11 63.55449 -104.63450 25505 ft 341 kts 302°
2026-05-04 15:11 63.56779 -104.67851 25520 ft 341 kts 302°
2026-05-04 15:11 63.58111 -104.72262 25509 ft 341 kts 302°
2026-05-04 15:12 63.59441 -104.76678 25522 ft 341 kts 302°
2026-05-04 15:12 63.60772 -104.81106 25545 ft 340 kts 303°
2026-05-04 15:12 63.62089 -104.85497 25601 ft 338 kts 302°
2026-05-04 15:12 63.63406 -104.89899 25557 ft 340 kts 302°
2026-05-04 15:13 63.64727 -104.94319 25529 ft 341 kts 303°
2026-05-04 15:13 63.66046 -104.98739 25572 ft 339 kts 302°
2026-05-04 15:13 63.67358 -105.03143 25591 ft 339 kts 302°
2026-05-04 15:13 63.68672 -105.07569 25560 ft 340 kts 302°
2026-05-04 15:14 63.69989 -105.12009 25568 ft 340 kts 302°
2026-05-04 15:14 63.71299 -105.16435 25591 ft 339 kts 303°
2026-05-04 15:14 63.72606 -105.20859 25600 ft 339 kts 302°
2026-05-04 15:14 63.73897 -105.25238 25595 ft 339 kts 302°
2026-05-04 15:15 63.75205 -105.29684 25582 ft 340 kts 302°
2026-05-04 15:15 63.76513 -105.34139 25589 ft 339 kts 302°
2026-05-04 15:15 63.77814 -105.38581 25610 ft 339 kts 302°
2026-05-04 15:16 63.80413 -105.47483 25589 ft 340 kts 302°
2026-05-04 15:16 63.81716 -105.51952 25606 ft 339 kts 302°
2026-05-04 15:16 63.84310 -105.60878 25616 ft 339 kts 302°
2026-05-04 15:17 63.85168 -105.63841 25606 ft 339 kts 302°
2026-05-04 15:17 63.87758 -105.72800 25620 ft 339 kts 302°
2026-05-04 15:17 63.89049 -105.77282 25640 ft 339 kts 302°
2026-05-04 15:18 63.90335 -105.81760 25644 ft 339 kts 302°
2026-05-04 15:18 63.91621 -105.86240 25652 ft 338 kts 302°
2026-05-04 15:18 63.92905 -105.90723 25648 ft 339 kts 302°
2026-05-04 15:19 63.95471 -105.99710 25655 ft 338 kts 302°
2026-05-04 15:19 63.96754 -106.04217 25657 ft 339 kts 302°
2026-05-04 15:19 63.99311 -106.13228 25662 ft 339 kts 302°
2026-05-04 15:20 64.00586 -106.17735 25665 ft 338 kts 302°
2026-05-04 15:20 64.01861 -106.22249 25667 ft 339 kts 302°
2026-05-04 15:20 64.03135 -106.26770 25671 ft 339 kts 302°
2026-05-04 15:20 64.04407 -106.31294 25684 ft 338 kts 302°
2026-05-04 15:21 64.05677 -106.35818 25682 ft 339 kts 302°
2026-05-04 15:21 64.06944 -106.40344 25725 ft 337 kts 303°
2026-05-04 15:21 64.09461 -106.49357 25723 ft 337 kts 303°
2026-05-04 15:22 64.10723 -106.53887 25726 ft 337 kts 303°
2026-05-04 15:22 64.11981 -106.58414 25752 ft 337 kts 303°
2026-05-04 15:22 64.14491 -106.67475 25732 ft 337 kts 303°
2026-05-04 15:23 64.15744 -106.72014 25750 ft 337 kts 303°
2026-05-04 15:23 64.16994 -106.76548 25758 ft 337 kts 303°
2026-05-04 15:23 64.18244 -106.81091 25748 ft 337 kts 303°
2026-05-04 15:23 64.19494 -106.85649 25748 ft 336 kts 303°
2026-05-04 15:24 64.21981 -106.94736 25762 ft 336 kts 303°
2026-05-04 15:24 64.24466 -107.03852 25784 ft 336 kts 303°
2026-05-04 15:25 64.25705 -107.08410 25781 ft 336 kts 303°
2026-05-04 15:25 64.26941 -107.12968 25769 ft 336 kts 303°
2026-05-04 15:25 64.28177 -107.17537 25768 ft 336 kts 303°
2026-05-04 15:26 64.30644 -107.26679 25847 ft 334 kts 302°
2026-05-04 15:26 64.31869 -107.31232 25838 ft 335 kts 302°
2026-05-04 15:26 64.34322 -107.40381 25828 ft 335 kts 302°
2026-05-04 15:27 64.35548 -107.44967 25836 ft 335 kts 302°
2026-05-04 15:27 64.37990 -107.54131 25838 ft 335 kts 302°
2026-05-04 15:28 64.40409 -107.63247 25845 ft 335 kts 302°
2026-05-04 15:28 64.41628 -107.67852 25849 ft 335 kts 302°
2026-05-04 15:28 64.44057 -107.77061 25859 ft 335 kts 302°
2026-05-04 15:29 64.45268 -107.81667 25853 ft 335 kts 301°
2026-05-04 15:30 64.50098 -108.00130 25872 ft 335 kts 301°
2026-05-04 15:30 64.53695 -108.13979 25927 ft 333 kts 301°
2026-05-04 15:31 64.56089 -108.23243 25922 ft 334 kts 301°
2026-05-04 15:31 64.57281 -108.27872 25952 ft 333 kts 301°
2026-05-04 15:32 64.60851 -108.41788 25945 ft 334 kts 301°
2026-05-04 15:32 64.63210 -108.51034 25950 ft 333 kts 300°
2026-05-04 15:33 64.65580 -108.60357 25951 ft 334 kts 300°
2026-05-04 15:34 64.69119 -108.74358 25962 ft 334 kts 300°
2026-05-04 15:34 64.70295 -108.79029 25961 ft 334 kts 300°
2026-05-04 15:34 64.72646 -108.88397 25973 ft 333 kts 300°
2026-05-04 15:35 64.74986 -108.97752 25986 ft 332 kts 300°
2026-05-04 15:35 64.76152 -109.02435 25966 ft 333 kts 300°
2026-05-04 15:35 64.77318 -109.07124 25962 ft 333 kts 300°
2026-05-04 15:36 64.79648 -109.16522 25977 ft 333 kts 299°
2026-05-04 15:36 64.80810 -109.21223 25970 ft 333 kts 299°
2026-05-04 15:36 64.81974 -109.25943 25971 ft 333 kts 299°
2026-05-04 15:37 64.83135 -109.30657 25979 ft 333 kts 299°
2026-05-04 15:37 64.84292 -109.35367 25987 ft 333 kts 299°
2026-05-04 15:37 64.85450 -109.40086 25992 ft 333 kts 299°
2026-05-04 15:37 64.86606 -109.44809 25991 ft 333 kts 299°
2026-05-04 15:38 64.87761 -109.49534 25993 ft 333 kts 299°
2026-05-04 15:38 64.88913 -109.54259 25993 ft 333 kts 299°
2026-05-04 15:38 64.90067 -109.58996 25993 ft 333 kts 299°
2026-05-04 15:38 64.91217 -109.63731 25992 ft 333 kts 299°
2026-05-04 15:39 64.92369 -109.68486 26001 ft 333 kts 299°
2026-05-04 15:39 64.93518 -109.73226 26003 ft 333 kts 299°
2026-05-04 15:39 64.95819 -109.82708 26040 ft 332 kts 299°
2026-05-04 15:40 64.96951 -109.87407 26050 ft 332 kts 298°
2026-05-04 15:40 64.98086 -109.92169 26048 ft 333 kts 298°
2026-05-04 15:40 64.99217 -109.96941 26048 ft 333 kts 298°
2026-05-04 15:40 65.00241 -110.01858 26041 ft 335 kts 290°
2026-05-04 15:41 65.01006 -110.07086 25993 ft 337 kts 287°
2026-05-04 15:41 65.01702 -110.12395 26017 ft 337 kts 286°
2026-05-04 15:41 65.02389 -110.17717 25986 ft 338 kts 286°
2026-05-04 15:41 65.03080 -110.23029 25993 ft 337 kts 286°
2026-05-04 15:42 65.03777 -110.28341 26021 ft 337 kts 286°
2026-05-04 15:42 65.04478 -110.33637 26016 ft 338 kts 286°
2026-05-04 15:42 65.05183 -110.38937 26020 ft 337 kts 286°
2026-05-04 15:42 65.05889 -110.44235 26031 ft 337 kts 286°
2026-05-04 15:43 65.06597 -110.49537 26026 ft 337 kts 286°
2026-05-04 15:43 65.07303 -110.54837 26031 ft 337 kts 286°
2026-05-04 15:43 65.08011 -110.60157 26032 ft 338 kts 286°
2026-05-04 15:43 65.08716 -110.65466 26040 ft 337 kts 286°
2026-05-04 15:44 65.09418 -110.70773 26037 ft 337 kts 286°
2026-05-04 15:44 65.10120 -110.76089 26037 ft 338 kts 286°
2026-05-04 15:44 65.10819 -110.81402 26056 ft 337 kts 286°
2026-05-04 15:44 65.11517 -110.86725 26058 ft 337 kts 286°
2026-05-04 15:45 65.12214 -110.92051 26056 ft 337 kts 286°
2026-05-04 15:45 65.12907 -110.97371 26083 ft 337 kts 286°
2026-05-04 15:45 65.13588 -111.02613 26085 ft 337 kts 285°
2026-05-04 15:45 65.14287 -111.08007 26074 ft 337 kts 285°
2026-05-04 15:46 65.14966 -111.13269 26020 ft 339 kts 285°
2026-05-04 15:46 65.15656 -111.18638 25994 ft 339 kts 285°
2026-05-04 15:46 65.16353 -111.24070 26036 ft 338 kts 285°
2026-05-04 15:46 65.17028 -111.29352 26041 ft 339 kts 285°
2026-05-04 15:47 65.17713 -111.34723 26018 ft 339 kts 285°
2026-05-04 15:47 65.18395 -111.40094 26042 ft 339 kts 285°
2026-05-04 15:47 65.19074 -111.45461 26055 ft 339 kts 285°
2026-05-04 15:47 65.19753 -111.50844 26048 ft 339 kts 284°
2026-05-04 15:48 65.20429 -111.56223 26058 ft 339 kts 284°
2026-05-04 15:48 65.21103 -111.61600 26080 ft 338 kts 284°
2026-05-04 15:48 65.22445 -111.72368 26054 ft 339 kts 284°
2026-05-04 15:49 65.23115 -111.77766 26074 ft 339 kts 284°
2026-05-04 15:49 65.23780 -111.83150 26085 ft 339 kts 284°
2026-05-04 15:49 65.24445 -111.88549 26082 ft 339 kts 284°
2026-05-04 15:49 65.25108 -111.93949 26086 ft 339 kts 284°
2026-05-04 15:50 65.25768 -111.99341 26095 ft 339 kts 284°
2026-05-04 15:50 65.26427 -112.04751 26092 ft 339 kts 284°
2026-05-04 15:50 65.27085 -112.10160 26104 ft 339 kts 284°
2026-05-04 15:50 65.27741 -112.15583 26026 ft 342 kts 283°
2026-05-04 15:51 65.28402 -112.21063 25981 ft 343 kts 283°
2026-05-04 15:51 65.29060 -112.26530 26019 ft 342 kts 283°
2026-05-04 15:51 65.29716 -112.32007 25975 ft 344 kts 283°
2026-05-04 15:51 65.30372 -112.37497 25990 ft 343 kts 283°
2026-05-04 15:52 65.31025 -112.42987 26002 ft 343 kts 283°
2026-05-04 15:52 65.31676 -112.48474 26031 ft 343 kts 283°
2026-05-04 15:52 65.32324 -112.53960 26055 ft 342 kts 283°
2026-05-04 15:52 65.32968 -112.59436 26069 ft 342 kts 283°
2026-05-04 15:53 65.33610 -112.64910 26054 ft 342 kts 283°
2026-05-04 15:53 65.34253 -112.70413 26039 ft 343 kts 283°
2026-05-04 15:53 65.34895 -112.75932 26007 ft 344 kts 283°
2026-05-04 15:53 65.35537 -112.81459 26037 ft 344 kts 283°
2026-05-04 15:54 65.36175 -112.86979 26067 ft 343 kts 283°
2026-05-04 15:54 65.36810 -112.92498 26064 ft 344 kts 283°
2026-05-04 15:54 65.37443 -112.98015 26076 ft 343 kts 282°
2026-05-04 15:54 65.38067 -113.03465 26126 ft 343 kts 283°
2026-05-04 15:55 65.38703 -113.09044 26143 ft 342 kts 283°
2026-05-04 15:55 65.39323 -113.14505 26126 ft 344 kts 282°
2026-05-04 15:55 65.39950 -113.20074 26010 ft 348 kts 281°
2026-05-04 15:55 65.40583 -113.25677 26075 ft 345 kts 281°
2026-05-04 15:56 65.41206 -113.31216 26164 ft 343 kts 281°
2026-05-04 15:56 65.41828 -113.36777 26105 ft 346 kts 281°
2026-05-04 15:56 65.42450 -113.42375 26069 ft 347 kts 281°
2026-05-04 15:56 65.43073 -113.48000 26029 ft 348 kts 281°
2026-05-04 15:57 65.43486 -113.51723 26056 ft 348 kts 281°
2026-05-04 15:57 65.44313 -113.59215 26109 ft 347 kts 281°
2026-05-04 15:57 65.44722 -113.62939 26068 ft 348 kts 281°
2026-05-04 15:57 65.45338 -113.68550 26144 ft 345 kts 281°
2026-05-04 15:58 65.45946 -113.74122 26214 ft 344 kts 281°
2026-05-04 15:58 65.46552 -113.79719 26144 ft 346 kts 281°
2026-05-04 15:58 65.47158 -113.85339 26135 ft 347 kts 281°
2026-05-04 15:58 65.47762 -113.90939 26168 ft 346 kts 280°
2026-05-04 15:59 65.48365 -113.96564 26122 ft 348 kts 280°
2026-05-04 15:59 65.48970 -114.02224 26130 ft 348 kts 280°
2026-05-04 15:59 65.49570 -114.07855 26186 ft 347 kts 280°
2026-05-04 15:59 65.50158 -114.13393 26204 ft 346 kts 280°
2026-05-04 16:00 65.50752 -114.19010 26229 ft 345 kts 280°
2026-05-04 16:00 65.51346 -114.24650 26154 ft 349 kts 279°
2026-05-04 16:00 65.51940 -114.30326 26124 ft 349 kts 279°
2026-05-04 16:00 65.52533 -114.35999 26197 ft 347 kts 279°
2026-05-04 16:01 65.53121 -114.41653 26197 ft 348 kts 279°
2026-05-04 16:01 65.53709 -114.47331 26186 ft 348 kts 279°
2026-05-04 16:01 65.54294 -114.53007 26201 ft 348 kts 279°
2026-05-04 16:01 65.54877 -114.58680 26212 ft 348 kts 279°
2026-05-04 16:02 65.55460 -114.64375 26193 ft 348 kts 279°
2026-05-04 16:02 65.56030 -114.69973 26201 ft 348 kts 279°
2026-05-04 16:02 65.57180 -114.81328 26231 ft 348 kts 279°
2026-05-04 16:03 65.57752 -114.87015 26241 ft 348 kts 279°
2026-05-04 16:03 65.58322 -114.92701 26251 ft 348 kts 279°
2026-05-04 16:03 65.58889 -114.98383 26251 ft 348 kts 278°
2026-05-04 16:03 65.59455 -115.04077 26246 ft 348 kts 278°
2026-05-04 16:04 65.60020 -115.09784 26258 ft 348 kts 278°
2026-05-04 16:04 65.61141 -115.21178 26263 ft 348 kts 278°
2026-05-04 16:04 65.61697 -115.26874 26262 ft 348 kts 278°
2026-05-04 16:05 65.62251 -115.32569 26275 ft 348 kts 278°
2026-05-04 16:05 65.62804 -115.38277 26282 ft 348 kts 278°
2026-05-04 16:05 65.63903 -115.49692 26285 ft 348 kts 278°
2026-05-04 16:06 65.64450 -115.55408 26290 ft 348 kts 278°
2026-05-04 16:06 65.65895 -115.70631 26308 ft 348 kts 278°
2026-05-04 16:07 65.66614 -115.78278 26315 ft 348 kts 278°
2026-05-04 16:07 65.68215 -115.95460 26331 ft 348 kts 278°
2026-05-04 16:08 65.68744 -116.01189 26334 ft 348 kts 278°
2026-05-04 16:08 65.70319 -116.18400 26362 ft 348 kts 277°
2026-05-04 16:09 65.71358 -116.29879 26383 ft 348 kts 277°
2026-05-04 16:09 65.72394 -116.41467 26269 ft 352 kts 277°
2026-05-04 16:10 65.73427 -116.53054 26349 ft 350 kts 277°
2026-05-04 16:11 65.74952 -116.70424 26366 ft 351 kts 276°
2026-05-04 16:11 65.75457 -116.76236 26366 ft 351 kts 276°
2026-05-04 16:12 65.76962 -116.93694 26397 ft 351 kts 276°
2026-05-04 16:12 65.78445 -117.11163 26431 ft 351 kts 276°
2026-05-04 16:13 65.79424 -117.22844 26453 ft 351 kts 276°
2026-05-04 16:13 65.80394 -117.34516 26456 ft 352 kts 276°
2026-05-04 16:14 65.81355 -117.46204 26457 ft 353 kts 276°
2026-05-04 16:14 65.82311 -117.57935 26479 ft 352 kts 276°
2026-05-04 16:15 65.83726 -117.75530 26488 ft 352 kts 276°
2026-05-04 16:16 65.84659 -117.87282 26518 ft 353 kts 276°
2026-05-04 16:16 65.86042 -118.04936 26582 ft 353 kts 276°
2026-05-04 16:17 65.86948 -118.16640 26602 ft 352 kts 275°
2026-05-04 16:18 65.88298 -118.34322 26607 ft 353 kts 275°
2026-05-04 16:18 65.88744 -118.40230 26616 ft 353 kts 275°
2026-05-04 16:19 65.90064 -118.57862 26801 ft 347 kts 276°
2026-05-04 16:19 65.90919 -118.69478 26736 ft 350 kts 276°
2026-05-04 16:20 65.92196 -118.87032 26775 ft 349 kts 276°
2026-05-04 16:20 65.93037 -118.98742 26788 ft 349 kts 276°
2026-05-04 16:21 65.94286 -119.16358 26797 ft 349 kts 276°
2026-05-04 16:22 65.95106 -119.28091 26810 ft 349 kts 276°
2026-05-04 16:22 65.96319 -119.45638 26840 ft 349 kts 276°
2026-05-04 16:23 65.97513 -119.63194 27054 ft 342 kts 278°
2026-05-04 16:24 65.99050 -119.85972 27168 ft 339 kts 277°
2026-05-04 16:25 65.99784 -119.97386 27189 ft 339 kts 278°
2026-05-04 16:26 66.02527 -120.19469 27221 ft 337 kts 286°
2026-05-04 16:26 66.04722 -120.35856 27233 ft 337 kts 286°
2026-05-04 16:27 66.06188 -120.46831 27218 ft 337 kts 286°
2026-05-04 16:28 66.08375 -120.63304 27221 ft 337 kts 286°
2026-05-04 16:28 66.10542 -120.79782 27288 ft 334 kts 287°
2026-05-04 16:29 66.13316 -121.01132 27468 ft 329 kts 287°
2026-05-04 16:30 66.15376 -121.17151 27541 ft 327 kts 287°
2026-05-04 16:31 66.16743 -121.27870 27574 ft 326 kts 287°
2026-05-04 16:31 66.18776 -121.43940 27554 ft 326 kts 286°
2026-05-04 16:32 66.20792 -121.60030 27556 ft 326 kts 286°
2026-05-04 16:33 66.22127 -121.70775 27565 ft 326 kts 286°
2026-05-04 16:33 66.23445 -121.81454 27565 ft 326 kts 286°
2026-05-04 16:34 66.24765 -121.92224 27576 ft 326 kts 286°
2026-05-04 16:34 66.25421 -121.97604 27570 ft 326 kts 285°
2026-05-04 16:35 66.27364 -122.13621 27900 ft 315 kts 286°
2026-05-04 16:35 66.29259 -122.29437 27782 ft 318 kts 285°
2026-05-04 16:36 66.29886 -122.34700 27840 ft 317 kts 285°
2026-05-04 16:36 66.31138 -122.45265 27791 ft 318 kts 285°
2026-05-04 16:37 66.32382 -122.55829 27798 ft 318 kts 285°
2026-05-04 16:37 66.33003 -122.61125 27795 ft 318 kts 285°
2026-05-04 16:37 66.34231 -122.71659 27799 ft 318 kts 285°
2026-05-04 16:38 66.35457 -122.82247 27797 ft 318 kts 285°
2026-05-04 16:39 66.37282 -122.98150 27804 ft 318 kts 285°
2026-05-04 16:39 66.38493 -123.08778 27764 ft 320 kts 284°
2026-05-04 16:40 66.39699 -123.19461 27782 ft 319 kts 284°
2026-05-04 16:40 66.40695 -123.28332 27768 ft 320 kts 284°
2026-05-04 16:41 66.41884 -123.38984 27886 ft 314 kts 285°
2026-05-04 16:41 66.43613 -123.54621 27928 ft 314 kts 284°
2026-05-04 16:42 66.45328 -123.70293 27999 ft 312 kts 284°
2026-05-04 16:43 66.46464 -123.80766 28022 ft 311 kts 284°
2026-05-04 16:43 66.47592 -123.91237 27998 ft 312 kts 284°
2026-05-04 16:43 66.48152 -123.96465 28027 ft 311 kts 284°
2026-05-04 16:44 66.50379 -124.17438 27969 ft 313 kts 283°
2026-05-04 16:45 66.51486 -124.27972 27976 ft 313 kts 283°
2026-05-04 16:46 66.53135 -124.43820 27983 ft 313 kts 283°
2026-05-04 16:46 66.54227 -124.54406 27982 ft 313 kts 283°
2026-05-04 16:47 66.55311 -124.65000 27991 ft 313 kts 283°
2026-05-04 16:47 66.56374 -124.75420 28347 ft 301 kts 284°
2026-05-04 16:48 66.58412 -124.95741 28416 ft 300 kts 284°
2026-05-04 16:49 66.60432 -125.16133 28420 ft 300 kts 284°
2026-05-04 16:50 66.62442 -125.36730 28309 ft 303 kts 283°
2026-05-04 16:51 66.63933 -125.52214 28285 ft 305 kts 283°
2026-05-04 16:52 66.65901 -125.72924 28338 ft 303 kts 282°
2026-05-04 16:53 66.67356 -125.88447 28338 ft 303 kts 282°
2026-05-04 16:53 66.68792 -126.03966 28491 ft 297 kts 283°
2026-05-04 16:54 66.69258 -126.08992 28732 ft 291 kts 283°
2026-05-04 16:55 66.71047 -126.28675 28867 ft 288 kts 283°
2026-05-04 16:55 66.71927 -126.38454 28763 ft 292 kts 282°
2026-05-04 16:56 66.72832 -126.48573 28717 ft 292 kts 282°
2026-05-04 16:56 66.74156 -126.63537 28702 ft 293 kts 282°
2026-05-04 16:57 66.74597 -126.68559 28754 ft 291 kts 282°
2026-05-04 16:57 66.75469 -126.78548 28786 ft 291 kts 282°
2026-05-04 16:58 66.76766 -126.93565 28796 ft 291 kts 282°
2026-05-04 16:58 66.77195 -126.98572 28780 ft 291 kts 282°
2026-05-04 16:59 66.78048 -127.08586 28764 ft 291 kts 282°
2026-05-04 17:00 66.79738 -127.28660 28785 ft 290 kts 282°
2026-05-04 17:00 66.80981 -127.43646 28762 ft 291 kts 282°
2026-05-04 17:01 66.81804 -127.53678 28794 ft 290 kts 282°
2026-05-04 17:01 66.82621 -127.63713 28800 ft 290 kts 282°
2026-05-04 17:02 66.83431 -127.73752 28812 ft 290 kts 281°
2026-05-04 17:02 66.84235 -127.83795 28803 ft 290 kts 281°
2026-05-04 17:03 66.84636 -127.88831 28836 ft 289 kts 281°
2026-05-04 17:03 66.85032 -127.93840 28832 ft 290 kts 281°
2026-05-04 17:03 66.85818 -128.03827 28855 ft 289 kts 281°
2026-05-04 17:04 66.86601 -128.13859 28849 ft 290 kts 281°
2026-05-04 17:04 66.87380 -128.23928 28849 ft 289 kts 281°
2026-05-04 17:05 66.88151 -128.33984 28858 ft 289 kts 281°
2026-05-04 17:05 66.88914 -128.44027 28883 ft 289 kts 281°
2026-05-04 17:06 66.89669 -128.54056 28911 ft 288 kts 281°
2026-05-04 17:06 66.90041 -128.59021 28860 ft 290 kts 280°
2026-05-04 17:07 66.90794 -128.69132 28981 ft 285 kts 281°
2026-05-04 17:07 66.91040 -128.72445 29154 ft 279 kts 282°
2026-05-04 17:07 66.91509 -128.78785 29504 ft 271 kts 281°
2026-05-04 17:07 66.91847 -128.83446 29714 ft 265 kts 281°
2026-05-04 17:08 66.92182 -128.88075 29667 ft 267 kts 281°
2026-05-04 17:08 66.92860 -128.97440 29589 ft 268 kts 281°
2026-05-04 17:08 66.93195 -129.02088 29644 ft 266 kts 281°
2026-05-04 17:09 66.93530 -129.06745 29572 ft 268 kts 281°
2026-05-04 17:09 66.93864 -129.11413 29561 ft 267 kts 281°
2026-05-04 17:09 66.94196 -129.16081 29564 ft 267 kts 281°
2026-05-04 17:10 66.94857 -129.25413 29530 ft 268 kts 281°
2026-05-04 17:10 66.95838 -129.39399 29536 ft 267 kts 281°
2026-05-04 17:11 66.96163 -129.44068 29559 ft 266 kts 281°
2026-05-04 17:11 66.96486 -129.48734 29512 ft 267 kts 281°
2026-05-04 17:11 66.97130 -129.58080 29508 ft 267 kts 281°
2026-05-04 17:12 66.97450 -129.62748 29497 ft 267 kts 281°
2026-05-04 17:12 66.98090 -129.72094 29498 ft 267 kts 281°
2026-05-04 17:13 66.99050 -129.86202 29428 ft 269 kts 279°
2026-05-04 17:14 66.99957 -130.00368 29452 ft 270 kts 277°
2026-05-04 17:14 67.00110 -130.05169 29454 ft 272 kts 274°
2026-05-04 17:14 67.00245 -130.14774 29627 ft 264 kts 274°
2026-05-04 17:15 67.00306 -130.19423 29796 ft 260 kts 274°
2026-05-04 17:15 67.00440 -130.28806 29597 ft 266 kts 275°
2026-05-04 17:16 67.00586 -130.38157 29716 ft 262 kts 275°
2026-05-04 17:16 67.00810 -130.52193 29663 ft 262 kts 275°
2026-05-04 17:17 67.00884 -130.56855 29639 ft 263 kts 275°
2026-05-04 17:17 67.01101 -130.70872 29623 ft 263 kts 275°
2026-05-04 17:18 67.01171 -130.75498 29612 ft 263 kts 275°
2026-05-04 17:18 67.01308 -130.84840 29617 ft 263 kts 275°
2026-05-04 17:19 67.01441 -130.94190 29597 ft 263 kts 275°
2026-05-04 17:19 67.01568 -131.03533 29640 ft 262 kts 274°
2026-05-04 17:20 67.01688 -131.12879 29598 ft 263 kts 274°
2026-05-04 17:20 67.01803 -131.22213 29608 ft 263 kts 274°
2026-05-04 17:20 67.01861 -131.26897 29601 ft 263 kts 274°
2026-05-04 17:21 67.01968 -131.36216 29633 ft 260 kts 273°
2026-05-04 17:21 67.02069 -131.45469 29633 ft 260 kts 273°
2026-05-04 17:22 67.02118 -131.50110 29628 ft 261 kts 273°
2026-05-04 17:22 67.02165 -131.54680 29658 ft 260 kts 273°
2026-05-04 17:23 67.02286 -131.67080 29653 ft 260 kts 273°
2026-05-04 17:23 67.02329 -131.71708 29700 ft 260 kts 273°
2026-05-04 17:23 67.02422 -131.82482 29662 ft 260 kts 273°
2026-05-04 17:24 67.02447 -131.85610 29676 ft 260 kts 273°
2026-05-04 17:24 67.02554 -131.99460 29661 ft 260 kts 272°
2026-05-04 17:25 67.02587 -132.04104 29643 ft 261 kts 272°
2026-05-04 17:25 67.02649 -132.13355 29665 ft 260 kts 272°
2026-05-04 17:26 67.02706 -132.22631 29673 ft 260 kts 272°
2026-05-04 17:26 67.02780 -132.36537 29725 ft 260 kts 272°
2026-05-04 17:27 67.02823 -132.45768 29753 ft 260 kts 272°
2026-05-04 17:27 67.02862 -132.55013 29774 ft 259 kts 272°
2026-05-04 17:28 67.02893 -132.64311 29555 ft 263 kts 271°
2026-05-04 17:29 67.02933 -132.78249 29636 ft 261 kts 271°
2026-05-04 17:29 67.02959 -132.92204 29656 ft 261 kts 271°
2026-05-04 17:30 67.02973 -133.06152 29639 ft 261 kts 271°
2026-05-04 17:31 67.02976 -133.15457 29677 ft 261 kts 271°
2026-05-04 17:31 67.02970 -133.29335 29696 ft 260 kts 271°
2026-05-04 17:32 67.02959 -133.38636 29669 ft 262 kts 270°
2026-05-04 17:33 67.02933 -133.52596 29688 ft 261 kts 270°
2026-05-04 17:33 67.02921 -133.57236 29690 ft 261 kts 270°
2026-05-04 17:34 67.02878 -133.71169 29768 ft 260 kts 270°
2026-05-04 17:34 67.02861 -133.75795 29745 ft 261 kts 270°
2026-05-04 17:35 67.02802 -133.89861 29543 ft 264 kts 269°
2026-05-04 17:35 67.02756 -133.99232 29592 ft 263 kts 269°
2026-05-04 17:35 67.02731 -134.03926 29595 ft 263 kts 269°
2026-05-04 17:36 67.02704 -134.08614 29599 ft 264 kts 269°
2026-05-04 17:36 67.02676 -134.13309 29612 ft 264 kts 269°
2026-05-04 17:36 67.02647 -134.18003 29619 ft 264 kts 269°
2026-05-04 17:36 67.02616 -134.22699 29622 ft 264 kts 269°
2026-05-04 17:37 67.02583 -134.27397 29633 ft 264 kts 269°
2026-05-04 17:37 67.02550 -134.32022 29658 ft 263 kts 269°
2026-05-04 17:37 67.02515 -134.36713 29630 ft 264 kts 269°
2026-05-04 17:37 67.02479 -134.41414 29629 ft 264 kts 269°
2026-05-04 17:38 67.02441 -134.46104 29669 ft 263 kts 269°
2026-05-04 17:38 67.02402 -134.50788 29658 ft 264 kts 269°
2026-05-04 17:38 67.02361 -134.55484 29655 ft 264 kts 269°
2026-05-04 17:38 67.02319 -134.60173 29691 ft 263 kts 269°
2026-05-04 17:39 67.02232 -134.69568 29665 ft 264 kts 268°
2026-05-04 17:39 67.02186 -134.74268 29680 ft 264 kts 268°
2026-05-04 17:39 67.02138 -134.78957 29697 ft 264 kts 268°
2026-05-04 17:40 67.02089 -134.83649 29691 ft 264 kts 268°
2026-05-04 17:40 67.02039 -134.88360 29703 ft 264 kts 268°
2026-05-04 17:40 67.01987 -134.93057 29740 ft 264 kts 268°
2026-05-04 17:40 67.01934 -134.97750 29792 ft 263 kts 268°
2026-05-04 17:41 67.01878 -135.02420 29754 ft 263 kts 268°
2026-05-04 17:41 67.01822 -135.07101 29711 ft 264 kts 267°
2026-05-04 17:41 67.01766 -135.11800 29697 ft 264 kts 267°
2026-05-04 17:41 67.01709 -135.16488 29748 ft 263 kts 267°
2026-05-04 17:42 67.01649 -135.21174 29749 ft 264 kts 266°
2026-05-04 17:42 67.01588 -135.25868 29739 ft 264 kts 266°
2026-05-04 17:42 67.01526 -135.30561 29746 ft 264 kts 266°
2026-05-04 17:42 67.01462 -135.35245 29775 ft 263 kts 266°
2026-05-04 17:43 67.01396 -135.39923 29775 ft 264 kts 266°
2026-05-04 17:43 67.01330 -135.44561 29742 ft 264 kts 266°
2026-05-04 17:43 67.01261 -135.49312 29778 ft 264 kts 266°
2026-05-04 17:43 67.01193 -135.53951 29786 ft 264 kts 266°
2026-05-04 17:44 67.01122 -135.58638 29780 ft 264 kts 266°
2026-05-04 17:44 67.01049 -135.63325 29830 ft 263 kts 266°
2026-05-04 17:44 67.00975 -135.68015 29761 ft 265 kts 266°
2026-05-04 17:44 67.00900 -135.72727 29757 ft 265 kts 266°
2026-05-04 17:45 67.00825 -135.77420 29801 ft 262 kts 266°
2026-05-04 17:45 67.00747 -135.82070 29815 ft 262 kts 266°
2026-05-04 17:45 67.00668 -135.86760 29751 ft 265 kts 266°
2026-05-04 17:45 67.00587 -135.91475 29767 ft 264 kts 266°
2026-05-04 17:46 67.00507 -135.96162 29837 ft 263 kts 266°
2026-05-04 17:46 67.00423 -136.00844 29828 ft 264 kts 266°
2026-05-04 17:46 67.00337 -136.05550 29785 ft 265 kts 266°
2026-05-04 17:46 67.00250 -136.10245 29836 ft 263 kts 266°
2026-05-04 17:47 67.00163 -136.14918 29835 ft 263 kts 266°
2026-05-04 17:47 67.00073 -136.19555 29893 ft 261 kts 266°
2026-05-04 17:47 66.99983 -136.24226 29744 ft 266 kts 266°
2026-05-04 17:47 66.99891 -136.28977 29628 ft 267 kts 265°
2026-05-04 17:48 66.99798 -136.33705 29753 ft 265 kts 265°
2026-05-04 17:48 66.99704 -136.38399 29820 ft 264 kts 265°
2026-05-04 17:48 66.99608 -136.43091 29749 ft 266 kts 265°
2026-05-04 17:48 66.99510 -136.47812 29730 ft 266 kts 265°
2026-05-04 17:49 66.99412 -136.52525 29807 ft 265 kts 265°
2026-05-04 17:49 66.99312 -136.57223 29835 ft 265 kts 265°
2026-05-04 17:49 66.99210 -136.61929 29808 ft 266 kts 265°
2026-05-04 17:49 66.99106 -136.66658 29815 ft 266 kts 265°
2026-05-04 17:50 66.99002 -136.71375 29892 ft 265 kts 264°
2026-05-04 17:50 66.98896 -136.76069 29891 ft 265 kts 264°
2026-05-04 17:50 66.98788 -136.80782 29872 ft 266 kts 264°
2026-05-04 17:50 66.98680 -136.85437 29893 ft 265 kts 264°
2026-05-04 17:51 66.98570 -136.90132 29936 ft 265 kts 264°
2026-05-04 17:51 66.98459 -136.94823 29937 ft 265 kts 264°
2026-05-04 17:51 66.98346 -136.99541 29891 ft 267 kts 264°
2026-05-04 17:51 66.98232 -137.04266 29912 ft 266 kts 264°
2026-05-04 17:52 66.98116 -137.08973 29971 ft 265 kts 264°
2026-05-04 17:52 66.97999 -137.13681 29955 ft 265 kts 264°
2026-05-04 17:52 66.97880 -137.18404 29916 ft 266 kts 264°
2026-05-04 17:52 66.97760 -137.23122 29957 ft 266 kts 264°
2026-05-04 17:53 66.97638 -137.27833 29969 ft 266 kts 264°
2026-05-04 17:53 66.97516 -137.32539 29958 ft 266 kts 264°
2026-05-04 17:53 66.97391 -137.37260 29993 ft 266 kts 264°
2026-05-04 17:53 66.97266 -137.41964 30010 ft 266 kts 264°
2026-05-04 17:54 66.97138 -137.46685 29989 ft 266 kts 264°
2026-05-04 17:54 66.97010 -137.51352 29935 ft 267 kts 263°
2026-05-04 17:54 66.96878 -137.56113 29919 ft 268 kts 263°
2026-05-04 17:54 66.96747 -137.60864 29966 ft 268 kts 263°
2026-05-04 17:55 66.96614 -137.65599 30009 ft 267 kts 263°
2026-05-04 17:55 66.96479 -137.70329 30011 ft 267 kts 263°
2026-05-04 17:55 66.96343 -137.75068 29981 ft 268 kts 263°
2026-05-04 17:55 66.96205 -137.79813 30013 ft 267 kts 263°
2026-05-04 17:56 66.96066 -137.84543 30031 ft 267 kts 263°
2026-05-04 17:56 66.95926 -137.89273 30037 ft 267 kts 263°
2026-05-04 17:56 66.95784 -137.94006 30015 ft 268 kts 263°
2026-05-04 17:56 66.95641 -137.98754 30037 ft 267 kts 262°
2026-05-04 17:57 66.95496 -138.03480 30064 ft 266 kts 262°
2026-05-04 17:57 66.95351 -138.08196 30067 ft 267 kts 262°
2026-05-04 17:57 66.95203 -138.12933 30039 ft 268 kts 262°
2026-05-04 17:57 66.95054 -138.17660 30074 ft 267 kts 262°
2026-05-04 17:58 66.94904 -138.22389 30064 ft 268 kts 262°
2026-05-04 17:58 66.94751 -138.27135 30047 ft 268 kts 262°
2026-05-04 17:58 66.94598 -138.31871 30078 ft 268 kts 262°
2026-05-04 17:58 66.94444 -138.36599 30089 ft 267 kts 262°
2026-05-04 17:59 66.94288 -138.41336 30064 ft 268 kts 262°
2026-05-04 17:59 66.94131 -138.46076 30104 ft 268 kts 262°
2026-05-04 17:59 66.93811 -138.55534 30133 ft 267 kts 262°
2026-05-04 18:00 66.93650 -138.60251 30150 ft 267 kts 262°
2026-05-04 18:00 66.93487 -138.64973 30138 ft 267 kts 262°
2026-05-04 18:00 66.93325 -138.69644 30131 ft 268 kts 262°
2026-05-04 18:00 66.93158 -138.74384 30086 ft 268 kts 261°
2026-05-04 18:01 66.92991 -138.79100 30094 ft 267 kts 261°
2026-05-04 18:01 66.92822 -138.83842 30049 ft 270 kts 261°
2026-05-04 18:01 66.92651 -138.88603 30081 ft 269 kts 261°
2026-05-04 18:02 66.92307 -138.98075 30192 ft 268 kts 261°
2026-05-04 18:02 66.92133 -139.02806 30177 ft 268 kts 261°
2026-05-04 18:02 66.91957 -139.07539 30166 ft 269 kts 261°
2026-05-04 18:02 66.91780 -139.12294 30186 ft 269 kts 261°
2026-05-04 18:03 66.91601 -139.17025 30240 ft 268 kts 261°
2026-05-04 18:03 66.91421 -139.21742 30239 ft 268 kts 261°
2026-05-04 18:03 66.91238 -139.26492 30193 ft 270 kts 261°
2026-05-04 18:03 66.91055 -139.31238 30249 ft 268 kts 260°
2026-05-04 18:04 66.90871 -139.35958 30271 ft 268 kts 260°
2026-05-04 18:04 66.90748 -139.39088 30252 ft 269 kts 260°
2026-05-04 18:04 66.90310 -139.50151 30278 ft 268 kts 260°
2026-05-04 18:05 66.90185 -139.53274 30267 ft 268 kts 260°
2026-05-04 18:05 66.89993 -139.58023 30266 ft 269 kts 260°
2026-05-04 18:05 66.89801 -139.62753 30304 ft 268 kts 260°
2026-05-04 18:05 66.89545 -139.69003 30308 ft 268 kts 260°
2026-05-04 18:06 66.89218 -139.76909 30322 ft 268 kts 260°
2026-05-04 18:06 66.89020 -139.81618 30334 ft 268 kts 260°
2026-05-04 18:06 66.88822 -139.86330 30334 ft 267 kts 260°
2026-05-04 18:07 66.88623 -139.91031 30350 ft 268 kts 260°
2026-05-04 18:07 66.88421 -139.95754 30314 ft 269 kts 260°
2026-05-04 18:07 66.88219 -140.00484 30346 ft 268 kts 259°
2026-05-04 18:07 66.88015 -140.05196 30379 ft 267 kts 260°
2026-05-04 18:08 66.87813 -140.09851 30359 ft 269 kts 260°
2026-05-04 18:08 66.87605 -140.14590 30373 ft 269 kts 259°
2026-05-04 18:08 66.87397 -140.19313 30413 ft 269 kts 260°
2026-05-04 18:08 66.87187 -140.24034 30439 ft 268 kts 259°
2026-05-04 18:09 66.86764 -140.33467 30467 ft 268 kts 259°
2026-05-04 18:09 66.86335 -140.42936 30395 ft 270 kts 259°
2026-05-04 18:10 66.86120 -140.47672 30448 ft 269 kts 259°
2026-05-04 18:10 66.85903 -140.52389 30517 ft 268 kts 259°
2026-05-04 18:10 66.85685 -140.57085 30522 ft 269 kts 259°
2026-05-04 18:10 66.85466 -140.61823 30483 ft 271 kts 259°
2026-05-04 18:11 66.85246 -140.66570 30534 ft 269 kts 259°
2026-05-04 18:11 66.85027 -140.71285 30587 ft 268 kts 259°
2026-05-04 18:11 66.84809 -140.76001 30578 ft 269 kts 259°
2026-05-04 18:11 66.84590 -140.80723 30562 ft 270 kts 259°
2026-05-04 18:12 66.84371 -140.85389 30588 ft 269 kts 259°
2026-05-04 18:12 66.84141 -140.90103 30578 ft 269 kts 259°
2026-05-04 18:12 66.83904 -140.94827 30565 ft 269 kts 259°
2026-05-04 18:12 66.83662 -140.99540 30570 ft 269 kts 259°
2026-05-04 18:13 66.83425 -141.04240 30622 ft 268 kts 259°
2026-05-04 18:13 66.83181 -141.08937 30625 ft 268 kts 259°
2026-05-04 18:13 66.82699 -141.18368 30534 ft 270 kts 258°
2026-05-04 18:14 66.82462 -141.23086 30585 ft 269 kts 258°
2026-05-04 18:14 66.82226 -141.27787 30615 ft 269 kts 258°
2026-05-04 18:14 66.81990 -141.32493 30611 ft 269 kts 258°
2026-05-04 18:15 66.81515 -141.41913 30622 ft 269 kts 258°
2026-05-04 18:15 66.81037 -141.51332 30675 ft 269 kts 257°
2026-05-04 18:15 66.80794 -141.56048 30649 ft 270 kts 258°
2026-05-04 18:16 66.80553 -141.60763 30665 ft 269 kts 258°
2026-05-04 18:16 66.80312 -141.65465 30679 ft 268 kts 258°
2026-05-04 18:16 66.80069 -141.70166 30671 ft 270 kts 258°
2026-05-04 18:17 66.79577 -141.79579 30735 ft 268 kts 258°
2026-05-04 18:17 66.79329 -141.84269 30706 ft 269 kts 258°
2026-05-04 18:17 66.78829 -141.93682 30715 ft 269 kts 257°
2026-05-04 18:18 66.78577 -141.98381 30735 ft 269 kts 257°
2026-05-04 18:18 66.78323 -142.03081 30728 ft 269 kts 257°
2026-05-04 18:18 66.78068 -142.07789 30746 ft 270 kts 257°
2026-05-04 18:18 66.77812 -142.12490 30772 ft 269 kts 257°
2026-05-04 18:19 66.77298 -142.21817 30765 ft 269 kts 257°
2026-05-04 18:19 66.77037 -142.26515 30761 ft 269 kts 257°
2026-05-04 18:19 66.76776 -142.31204 30797 ft 268 kts 257°
2026-05-04 18:20 66.76514 -142.35884 30778 ft 268 kts 257°
2026-05-04 18:20 66.76250 -142.40573 30715 ft 270 kts 257°
2026-05-04 18:20 66.75983 -142.45272 30725 ft 269 kts 256°
2026-05-04 18:20 66.75716 -142.49961 30749 ft 269 kts 256°
2026-05-04 18:21 66.75446 -142.54656 30720 ft 270 kts 256°
2026-05-04 18:21 66.75176 -142.59357 30695 ft 270 kts 257°
2026-05-04 18:21 66.74904 -142.64062 30729 ft 269 kts 256°
2026-05-04 18:21 66.74631 -142.68741 30783 ft 268 kts 256°
2026-05-04 18:22 66.74357 -142.73417 30809 ft 268 kts 256°
2026-05-04 18:22 66.74081 -142.78089 30824 ft 270 kts 256°
2026-05-04 18:22 66.73803 -142.82780 30815 ft 270 kts 256°
2026-05-04 18:22 66.73526 -142.87461 30874 ft 268 kts 256°
2026-05-04 18:23 66.73248 -142.92121 30868 ft 268 kts 256°
2026-05-04 18:23 66.72968 -142.96789 30833 ft 269 kts 256°
2026-05-04 18:23 66.72685 -143.01471 30844 ft 269 kts 256°
2026-05-04 18:23 66.72402 -143.06132 30873 ft 268 kts 256°
2026-05-04 18:24 66.72118 -143.10789 30881 ft 268 kts 255°
2026-05-04 18:24 66.71832 -143.15447 30869 ft 269 kts 256°
2026-05-04 18:24 66.71544 -143.20120 30841 ft 269 kts 255°
2026-05-04 18:24 66.71255 -143.24784 30871 ft 269 kts 255°
2026-05-04 18:25 66.70966 -143.29443 30907 ft 268 kts 255°
2026-05-04 18:25 66.70678 -143.34045 30902 ft 269 kts 255°
2026-05-04 18:25 66.70384 -143.38718 30899 ft 269 kts 255°
2026-05-04 18:25 66.70090 -143.43376 30909 ft 268 kts 255°
2026-05-04 18:26 66.69795 -143.48029 30916 ft 268 kts 255°
2026-05-04 18:26 66.69498 -143.52675 30919 ft 268 kts 255°
2026-05-04 18:26 66.69200 -143.57335 30922 ft 268 kts 255°
2026-05-04 18:26 66.68900 -143.61991 30868 ft 269 kts 255°
2026-05-04 18:27 66.68598 -143.66657 30855 ft 270 kts 255°
2026-05-04 18:27 66.68295 -143.71329 30890 ft 268 kts 254°
2026-05-04 18:27 66.67993 -143.75969 30915 ft 268 kts 254°
2026-05-04 18:27 66.67687 -143.80623 30898 ft 269 kts 254°
2026-05-04 18:28 66.67380 -143.85277 30890 ft 269 kts 254°
2026-05-04 18:28 66.67073 -143.89923 30899 ft 269 kts 254°
2026-05-04 18:28 66.66764 -143.94570 30916 ft 268 kts 254°
2026-05-04 18:28 66.66453 -143.99230 30902 ft 269 kts 254°
2026-05-04 18:29 66.66141 -144.03870 30925 ft 268 kts 254°
2026-05-04 18:29 66.65828 -144.08515 30980 ft 269 kts 253°
2026-05-04 18:29 66.65518 -144.13095 30987 ft 268 kts 253°
2026-05-04 18:29 66.65200 -144.17785 30991 ft 268 kts 253°
2026-05-04 18:30 66.64565 -144.27060 30995 ft 268 kts 253°
2026-05-04 18:30 66.64246 -144.31689 30999 ft 268 kts 253°
2026-05-04 18:30 66.63930 -144.36264 31003 ft 268 kts 253°
2026-05-04 18:31 66.63608 -144.40894 31023 ft 268 kts 253°
2026-05-04 18:31 66.63286 -144.45515 31010 ft 268 kts 253°
2026-05-04 18:31 66.62962 -144.50145 31001 ft 268 kts 253°
2026-05-04 18:31 66.62637 -144.54770 31006 ft 268 kts 253°
2026-05-04 18:32 66.62311 -144.59393 31009 ft 268 kts 253°
2026-05-04 18:32 66.61983 -144.64025 31007 ft 268 kts 253°
2026-05-04 18:32 66.61654 -144.68651 31037 ft 268 kts 253°
2026-05-04 18:32 66.61326 -144.73256 31049 ft 267 kts 253°
2026-05-04 18:33 66.60995 -144.77871 31002 ft 268 kts 252°
2026-05-04 18:33 66.60661 -144.82497 30953 ft 270 kts 252°
2026-05-04 18:33 66.60326 -144.87149 30953 ft 270 kts 252°
2026-05-04 18:33 66.59993 -144.91781 31003 ft 268 kts 252°
2026-05-04 18:34 66.59659 -144.96394 31018 ft 268 kts 252°
2026-05-04 18:34 66.59325 -145.01016 30988 ft 269 kts 252°
2026-05-04 18:34 66.58991 -145.05664 31005 ft 269 kts 252°
2026-05-04 18:34 66.58657 -145.10288 31026 ft 268 kts 252°
2026-05-04 18:35 66.58315 -145.14899 31009 ft 269 kts 252°
2026-05-04 18:35 66.57964 -145.19521 31002 ft 269 kts 252°
2026-05-04 18:35 66.57609 -145.24134 31019 ft 268 kts 252°
2026-05-04 18:35 66.57262 -145.28740 31045 ft 268 kts 251°
2026-05-04 18:36 66.56819 -145.33282 31116 ft 267 kts 248°
2026-05-04 18:36 66.56328 -145.37737 31115 ft 267 kts 248°
2026-05-04 18:36 66.55826 -145.42228 31129 ft 267 kts 248°
2026-05-04 18:36 66.55328 -145.46715 31124 ft 267 kts 248°
2026-05-04 18:37 66.54833 -145.51221 31118 ft 267 kts 248°
2026-05-04 18:37 66.54335 -145.55783 31112 ft 268 kts 248°
2026-05-04 18:37 66.53854 -145.60223 31133 ft 267 kts 248°
2026-05-04 18:37 66.53366 -145.64732 31142 ft 267 kts 248°
2026-05-04 18:38 66.52880 -145.69234 31131 ft 268 kts 248°
2026-05-04 18:38 66.52394 -145.73740 31134 ft 268 kts 248°
2026-05-04 18:38 66.51907 -145.78250 31153 ft 267 kts 248°
2026-05-04 18:38 66.51420 -145.82749 31156 ft 267 kts 248°
2026-05-04 18:39 66.50932 -145.87251 31147 ft 268 kts 248°
2026-05-04 18:39 66.50443 -145.91761 31158 ft 267 kts 248°